GFSNGP_prec_cloud_024.txt.gz
Cloud_Cover
1 16 69 90 40 17 5 0 0 0 0 0 13 4 5 5 1 19 2 4 5 72 45 100 92 31 26 49 5 5 38 100 100 100 83 98 77 98 99 96 68 89 86 100
0 0 0 0 3 0 0 3 5 3 5 0 4 3 0 5 5 5 6 5 5 5 5 29 22 26 33 80 12 5 100 100 100 100 100 100 100 100 93 99 100 83 95 99
0 0 0 0 0 0 0 3 4 5 27 5 0 0 4 1 5 5 5 5 5 5 77 89 5 30 46 39 12 44 100 100 100 100 83 100 100 85 100 100 100 100 94 100
0 0 3 0 0 0 5 3 0 47 93 16 3 5 5 5 25 5 5 5 44 98 13 5 5 85 79 50 38 90 100 100 100 100 100 100 100 100 100 100 100 100 100 100
36 0 0 0 0 0 5 3 6 97 6 5 5 5 5 5 5 6 21 99 100 32 5 5 5 92 76 89 99 100 100 100 99 100 100 100 100 100 100 100 100 100 100 100
0 0 5 5 1 4 4 5 16 5 5 5 5 5 5 5 5 90 100 95 5 5 6 9 89 98 66 77 68 99 100 100 94 100 100 100 100 100 100 100 100 100 100 100
0 33 5 6 13 23 23 17 5 46 15 29 7 5 5 6 99 100 12 5 24 22 37 80 53 36 72 100 81 76 100 100 100 100 100 100 100 100 100 100 100 100 100 100
6 72 54 6 30 74 5 15 29 5 5 5 5 5 32 100 48 100 6 17 58 98 89 34 70 99 94 83 100 100 100 100 100 100 100 100 100 100 100 100 100 100 100 100
5 5 60 67 97 7 57 100 5 5 5 5 8 94 96 32 96 79 58 85 81 79 61 98 76 99 100 98 73 100 100 100 100 100 100 100 100 100 100 100 100 93 10 22
50 26 5 11 20 66 67 5 83 57 83 100 99 14 5 80 100 60 100 86 74 81 95 100 67 90 100 100 100 100 100 100 100 100 100 100 100 100 100 100 100 100 90 100
91 8 5 5 72 65 5 10 93 100 100 99 18 5 37 40 48 48 81 44 80 96 99 100 100 100 100 100 100 100 100 100 100 100 100 100 100 100 100 98 67 100 98 100
56 7 71 4 15 31 71 93 100 100 81 5 5 6 38 55 56 47 67 100 100 96 81 59 79 70 70 74 93 100 100 100 100 100 100 100 100 100 100 99 93 67 9 16
5 5 5 11 21 96 100 100 100 62 5 45 8 9 26 83 97 100 93 92 50 86 16 62 62 62 77 78 43 7 97 98 96 97 94 50 8 5 59 6 9 49 44 100
34 5 26 7 100 100 100 86 6 52 23 20 17 15 53 72 74 97 92 51 5 7 18 5 5 5 5 4 4 20 6 5 5 5 26 17 9 74 100 31 5 5 10 98
80 36 75 100 100 91 44 35 54 38 31 11 34 82 98 100 100 100 96 98 84 8 5 5 9 6 5 24 27 6 5 3 6 60 83 45 93 100 85 44 54 18 41 96
100 100 100 95 88 100 43 6 5 29 86 98 100 100 100 100 100 100 100 60 5 5 5 74 50 4 12 27 5 5 5 15 97 100 100 100 100 100 75 74 89 93 99 100
75 77 91 100 92 83 96 73 47 78 100 100 100 100 100 100 100 100 15 5 56 100 96 59 16 5 5 5 5 6 8 56 96 100 100 100 87 64 80 72 100 94 99 87
100 100 99 100 100 100 86 100 94 99 100 100 100 100 100 100 100 100 100 100 100 99 6 99 72 100 68 6 23 35 69 94 100 89 95 94 7 10 5 5 36 73 94 98
100 100 100 100 98 100 99 95 98 100 100 100 100 100 100 100 100 100 46 25 41 26 60 94 84 39 39 92 100 100 100 100 100 100 100 99 60 57 6 23 57 96 100 100
100 100 100 100 100 100 100 100 100 100 100 100 68 16 8 5 5 5 5 5 28 96 91 91 7 5 7 79 86 68 97 100 100 100 100 100 100 82 81 28 94 100 100 100
100 100 100 100 100 100 100 100 100 100 35 7 22 39 5 5 5 5 5 7 98 65 5 5 15 94 22 5 5 5 74 100 100 89 100 100 100 100 72 89 100 100 100 100
100 100 100 100 100 100 100 100 100 92 46 28 5 5 5 5 5 5 5 46 18 5 5 88 100 32 5 34 95 100 98 100 100 100 98 100 100 100 100 100 100 100 100 100
100 100 100 100 100 100 100 100 76 18 5 5 5 5 5 5 5 25 83 86 34 5 43 88 42 5 65 100 100 100 100 100 99 100 100 100 100 100 98 100 100 100 100 100
100 100 100 100 100 82 79 10 5 4 5 5 5 5 5 8 9 44 6 5 57 34 100 100 89 39 100 100 100 100 98 100 79 96 100 100 100 100 100 100 100 100 100 100
100 100 100 100 96 53 12 5 5 5 5 5 8 5 14 66 58 56 83 94 86 97 91 100 100 96 96 100 100 100 100 100 100 100 100 100 100 100 100 100 100 100 100 100
100 100 98 76 89 81 66 49 52 16 6 61 40 12 97 85 93 63 99 98 93 100 100 100 100 100 100 100 100 100 100 100 98 100 100 100 100 100 100 100 100 100 100 100
96 83 82 98 100 100 83 51 82 81 46 85 34 33 97 100 96 98 100 100 100 100 100 100 100 100 100 100 100 100 100 100 100 100 100 91 100 100 100 100 100 100 100 100

GFSNGP_prec_cloud_027.txt.gz
Cloud_Cover
35 5 5 53 5 92 86 39 4 0 0 0 4 5 5 4 2 0 45 2 0 3 32 5 13 18 5 26 39 5 7 9 65 100 99 81 100 99 73 91 75 34 88 96
0 0 0 5 0 3 5 0 5 5 4 0 5 2 5 0 0 5 5 5 5 5 5 5 36 77 5 4 10 17 97 97 100 100 72 96 99 98 100 100 100 100 100 100
0 0 0 0 0 0 0 0 0 0 0 0 0 0 3 5 18 4 0 5 5 4 0 36 100 13 5 5 53 100 100 100 100 100 100 100 100 100 100 100 100 100 99 77
3 0 0 0 0 0 0 0 0 5 5 4 3 3 0 0 3 5 5 5 5 5 70 98 9 5 5 28 100 100 100 100 100 97 83 99 100 100 100 100 100 100 100 100
0 3 3 0 0 0 0 0 0 5 5 5 5 1 5 5 5 5 5 5 5 44 99 10 5 5 5 97 100 100 100 79 100 67 100 100 100 100 100 100 100 100 100 100
0 5 5 5 5 0 0 2 5 5 5 5 5 5 5 5 5 5 5 5 26 100 6 6 36 5 6 18 24 21 90 91 73 100 100 100 100 100 100 100 100 100 100 100
9 13 5 6 5 4 1 0 5 5 5 5 6 5 5 5 5 19 6 90 77 5 12 8 52 92 94 79 92 89 87 100 100 100 100 100 100 100 100 100 100 100 100 100
58 79 15 5 61 5 5 5 27 5 5 12 80 82 7 5 5 42 100 100 16 5 18 90 100 100 100 100 100 100 100 100 100 100 100 100 100 100 100 100 100 100 100 99
5 5 5 5 5 5 33 68 5 5 30 67 18 26 45 9 99 100 100 71 15 92 98 100 100 98 100 100 100 100 100 100 98 69 96 100 100 95 100 85 100 42 5 40
5 5 33 8 15 59 100 100 80 90 67 8 7 6 44 100 100 100 99 95 100 96 75 61 97 100 100 100 100 100 78 77 54 66 36 5 0 4 5 5 29 20 5 18
40 10 11 5 41 100 100 96 93 86 18 5 13 99 100 100 97 83 100 100 100 94 57 57 100 100 100 100 98 13 5 6 2 0 1 3 5 5 5 6 21 5 5 5
100 100 86 42 8 5 9 24 39 59 32 5 99 100 100 82 59 74 100 100 100 85 88 98 100 100 100 86 5 5 5 5 5 5 2 4 5 5 5 5 5 5 31 81
100 100 100 100 100 74 5 5 6 6 5 51 100 100 47 45 11 97 69 76 54 99 100 100 100 100 100 60 31 5 2 0 2 4 5 5 5 5 5 5 5 1 0 5
72 36 22 58 99 15 32 81 72 56 100 100 72 58 28 5 5 26 86 92 100 100 100 100 100 98 7 9 5 5 5 5 5 5 5 16 19 66 89 100 21 5 4 5
100 100 100 100 93 58 28 13 61 100 90 16 6 10 20 25 72 100 100 100 100 100 100 100 64 37 6 5 4 5 5 6 8 68 88 100 100 99 97 91 87 6 6 6
100 100 89 7 23 64 9 15 56 30 28 100 100 69 80 95 86 94 100 100 100 100 100 100 100 62 70 72 7 5 5 41 78 97 88 72 100 100 99 96 74 77 80 16
58 39 28 71 96 53 23 9 7 92 100 72 100 100 100 75 97 100 100 100 100 98 100 100 97 83 84 12 5 47 85 100 91 88 100 93 97 100 100 99 68 53 16 8
76 55 55 88 99 100 82 41 87 90 100 100 100 100 100 100 100 100 100 100 38 38 83 7 9 5 5 26 83 80 98 91 52 75 100 82 99 100 83 99 100 100 5 9
100 100 100 100 100 100 85 97 100 100 100 100 91 100 100 100 100 100 100 100 100 66 78 76 29 19 6 5 5 5 8 44 47 45 54 46 48 42 84 100 100 100 86 100
100 100 100 100 88 100 100 100 94 91 100 100 100 100 100 100 100 100 100 99 96 94 40 68 45 5 5 5 49 99 100 100 100 100 100 100 100 72 100 98 100 100 98 94
99 91 98 100 100 100 100 100 100 100 100 100 100 100 100 100 100 99 83 22 96 5 5 96 18 5 5 69 82 100 70 100 100 100 100 100 100 97 100 100 100 100 100 100
100 100 100 100 100 100 100 100 100 100 100 100 100 100 100 100 100 43 88 44 26 5 16 99 54 11 5 41 87 89 68 100 78 100 100 100 100 100 100 100 100 100 100 100
100 100 100 100 100 100 100 100 100 100 100 100 100 100 100 100 20 28 80 71 5 5 5 79 75 7 5 5 53 96 21 100 100 100 100 100 100 100 100 100 100 100 100 100
100 100 100 100 100 100 100 100 100 100 100 100 100 100 42 38 42 8 5 15 40 26 9 28 63 50 53 31 49 96 61 100 85 100 100 100 100 100 100 100 100 100 100 100
100 100 100 100 100 100 100 100 100 100 100 95 44 6 69 5 8 27 28 14 40 18 60 54 36 64 73 36 55 98 78 100 69 83 96 100 100 100 100 100 100 100 100 100
100 100 100 100 100 100 100 100 100 89 38 8 10 8 96 100 57 14 23 30 33 32 66 66 56 47 65 68 82 81 90 77 5 96 97 26 88 100 100 100 100 100 100 100
100 100 100 98 100 100 100 100 98 44 93 61 6 5 99 100 92 18 13 51 63 78 60 81 85 36 10 96 100 97 68 13 16 98 62 5 80 100 100 100 100 100 100 100

GFSNGP_prec_cloud_030.txt.gz
Cloud_Cover
99 98 5 70 15 20 7 5 2 0 4 0 0 0 3 0 0 0 0 0 0 3 5 5 13 33 86 96 68 15 5 34 100 100 100 93 100 100 61 26 87 79 79 100
5 2 0 1 0 0 0 94 5 4 2 0 1 35 2 0 2 3 5 4 5 5 2 5 6 33 5 3 4 5 83 100 100 100 100 100 100 100 98 97 100 100 100 96
4 0 0 0 0 0 0 4 25 26 5 0 0 0 0 3 5 3 0 4 4 4 2 0 0 0 0 5 5 44 89 67 98 100 100 100 100 100 100 100 100 100 91 100
1 0 1 0 0 0 0 0 0 0 4 0 0 0 0 2 2 1 5 5 5 4 4 5 2 5 34 21 61 75 100 100 82 74 18 78 100 100 100 100 100 100 100 100
5 5 0 0 0 0 0 0 0 5 4 0 0 0 0 0 5 11 32 8 5 5 5 5 11 97 100 20 5 30 98 99 100 100 100 100 100 100 100 100 100 100 100 100
21 4 2 1 4 0 0 4 5 5 5 5 5 5 5 6 52 66 7 5 4 5 5 46 100 100 98 17 5 7 28 97 100 100 100 100 100 100 100 100 99 99 74 26
45 5 4 4 4 4 5 58 30 6 5 0 5 5 31 60 14 8 10 9 6 5 10 100 83 6 64 62 100 100 100 100 100 100 100 100 100 100 100 62 10 4 0 0
70 74 5 5 5 5 22 32 5 5 16 39 5 6 16 16 13 15 21 43 20 12 92 95 87 71 100 100 100 100 100 100 100 100 100 100 100 100 75 2 4 0 0 4
26 82 75 47 61 21 5 5 6 40 52 62 89 75 31 70 12 5 8 36 17 70 100 100 100 100 100 100 100 100 100 100 100 100 100 98 100 61 4 5 2 5 5 5
55 95 100 58 32 7 11 42 30 41 88 100 100 98 78 58 16 34 50 11 69 100 100 100 100 98 64 100 100 100 100 100 100 99 96 100 46 5 5 5 5 5 5 5
88 96 46 100 80 56 69 100 100 100 100 100 99 92 99 100 98 63 39 100 100 100 100 100 98 23 87 100 100 100 100 100 76 98 100 90 5 5 5 1 5 5 5 5
96 97 77 58 48 55 79 100 100 100 100 100 100 100 90 67 65 96 100 100 100 100 97 66 7 51 76 82 100 100 100 62 96 83 35 10 5 3 1 5 5 5 5 5
100 100 78 70 47 47 92 100 100 100 87 98 99 90 48 19 44 100 100 92 18 34 20 7 14 27 86 98 100 100 100 100 60 21 5 5 5 5 5 5 5 5 5 5
17 75 97 100 100 100 94 83 100 100 96 100 96 5 5 5 5 5 5 5 33 68 22 11 52 80 84 100 100 100 98 77 88 81 63 100 86 71 61 50 14 5 52 73
65 30 21 39 81 90 96 100 100 100 95 33 5 5 8 15 19 67 60 58 18 79 100 92 43 88 100 100 99 54 8 66 48 37 73 85 89 97 99 100 92 100 57 16
100 63 33 50 20 43 47 54 68 19 5 5 10 28 69 77 91 98 92 94 96 99 99 82 100 100 100 99 78 88 84 97 53 18 37 30 55 100 98 90 100 100 100 77
100 100 92 6 47 32 14 28 56 11 63 98 100 88 73 85 86 93 96 100 100 94 96 100 100 100 100 100 100 47 5 7 8 9 31 54 73 43 59 98 74 98 93 90
100 100 100 100 31 72 97 67 82 92 100 100 100 100 100 98 92 100 100 76 71 72 37 78 100 99 100 99 76 90 97 99 95 98 100 100 100 100 99 100 100 100 100 89
100 100 100 100 100 100 97 100 100 100 100 100 100 100 85 95 98 93 89 88 89 87 99 100 100 100 100 7 67 98 33 100 100 87 100 100 100 98 96 100 100 100 100 100
100 100 100 100 100 99 100 99 100 100 100 99 100 100 96 99 100 98 99 100 100 100 100 100 100 92 7 50 78 19 59 100 47 97 100 100 100 100 100 99 100 100 100 100
100 100 100 100 100 100 100 100 100 100 100 100 100 100 100 100 100 100 100 100 100 100 100 100 91 6 5 26 83 14 31 95 64 100 100 100 100 100 100 100 100 100 100 100
100 100 100 100 100 100 100 100 100 100 100 100 100 100 100 100 100 100 100 100 100 93 70 63 59 51 24 41 32 73 62 91 36 100 100 100 100 100 100 100 100 100 100 100
100 100 100 100 100 100 100 100 100 100 100 100 100 100 100 100 100 100 92 97 15 40 35 77 77 84 61 53 76 89 88 68 41 96 100 100 93 100 100 100 100 100 100 100
100 100 100 100 100 100 100 100 100 100 100 100 100 100 100 100 99 74 57 68 82 78 86 66 84 100 51 58 93 100 89 77 51 62 96 57 5 99 91 100 100 100 100 99
100 100 100 100 100 100 100 100 100 100 100 100 100 100 100 98 78 72 72 71 75 74 64 89 93 92 100 91 96 94 100 63 42 91 80 29 15 100 93 100 100 100 100 100
100 100 100 100 100 100 100 100 100 100 100 100 99 96 100 100 95 84 68 72 65 73 64 99 93 46 40 94 81 100 96 40 20 100 76 21 40 75 97 100 100 100 100 100
100 100 100 100 100 100 100 100 100 98 100 100 100 100 95 97 87 62 61 51 100 87 91 96 90 54 10 81 92 96 92 14 48 94 59 66 42 58 89 100 100 100 100 100

GFSNGP_prec_cloud_033.txt.gz
Cloud_Cover
5 5 10 5 5 4 1 5 5 20 20 5 22 49 32 1 0 2 2 5 72 59 97 51 41 7 64 74 99 76 43 95 92 87 40 26 27 45 100 100 100 100 100 100
5 1 0 5 80 100 23 5 3 5 5 0 0 0 0 0 0 0 5 5 5 0 0 5 5 93 100 96 84 100 87 74 22 65 100 100 100 100 100 100 100 100 100 100
0 0 1 8 0 0 0 0 0 1 2 0 0 1 0 0 0 0 0 4 4 2 5 5 5 6 7 73 69 22 31 96 83 100 100 100 100 100 100 100 100 100 100 100
0 0 4 5 0 0 0 0 0 1 0 0 0 4 5 2 2 0 2 4 4 5 5 5 22 12 5 0 5 5 5 29 77 99 100 100 100 100 100 100 92 100 100 100
0 1 4 5 0 0 0 0 4 1 0 0 0 0 0 1 3 4 2 4 5 5 5 5 5 5 5 5 51 10 34 96 100 100 100 100 100 100 100 100 100 96 100 100
8 0 4 90 2 0 0 5 5 5 5 0 0 0 0 2 0 0 5 5 5 5 5 5 5 5 5 11 47 100 60 91 100 100 100 100 100 100 100 100 100 100 100 100
25 0 13 5 2 5 4 10 1 4 5 5 5 5 5 5 5 6 17 59 41 6 38 50 6 13 23 31 100 99 71 100 100 100 100 100 100 100 100 100 100 100 86 53
2 2 68 4 11 5 4 0 2 5 5 13 20 48 9 6 54 36 9 5 8 89 85 89 68 81 96 100 99 93 100 100 100 99 100 100 100 100 100 100 98 87 100 100
0 5 35 5 5 5 5 5 5 5 5 5 5 5 5 9 6 8 58 97 100 100 93 99 80 97 99 100 100 72 59 12 79 98 100 100 100 100 95 98 99 100 100 64
5 83 62 43 9 5 5 5 5 5 8 58 100 100 100 100 100 100 100 100 100 100 98 100 100 100 100 100 92 42 29 83 99 100 100 100 90 91 84 100 100 100 85 5
100 100 81 98 81 32 18 7 7 9 32 96 100 100 100 100 100 100 100 100 100 97 100 100 100 99 98 88 58 65 71 67 25 50 58 62 84 76 100 100 99 70 5 5
100 100 92 75 99 100 100 100 100 100 100 100 100 100 100 100 100 100 100 100 100 100 100 96 67 70 38 44 6 5 5 5 5 7 81 100 95 91 100 100 73 72 13 5
100 100 98 62 100 100 100 100 100 100 100 100 100 100 100 100 100 100 100 100 100 82 14 23 16 5 5 5 5 5 5 35 91 100 100 100 100 100 100 97 98 19 46 80
100 100 100 100 99 79 62 77 92 97 100 100 100 98 95 91 79 72 78 35 50 95 100 41 10 5 5 5 18 64 95 100 100 100 95 99 100 98 100 100 100 100 24 40
100 100 100 100 100 100 93 14 5 9 15 26 10 22 12 17 84 100 75 99 100 100 49 36 15 20 41 72 81 72 84 100 85 22 56 99 70 45 48 51 51 93 61 34
100 100 100 100 100 100 96 74 86 93 52 58 47 58 77 67 70 92 90 95 93 76 76 83 74 68 16 8 42 78 99 81 97 97 92 98 88 92 100 100 98 87 86 86
100 100 100 100 87 100 100 100 84 100 100 100 100 100 100 100 97 100 100 99 100 93 100 74 79 36 50 100 99 97 87 100 66 84 82 100 100 100 100 100 99 100 100 100
100 99 100 100 100 99 93 100 100 100 100 100 100 100 100 100 100 100 100 100 100 100 100 92 48 96 71 55 79 64 54 100 47 12 99 96 99 100 100 100 100 100 99 99
100 96 100 100 100 100 100 100 100 100 100 100 100 100 100 100 100 100 100 100 97 96 97 94 86 20 24 59 45 19 84 75 5 63 56 82 100 94 99 100 100 100 100 100
100 100 100 100 100 100 100 100 100 100 100 100 100 100 100 100 100 100 100 100 99 100 99 70 65 97 75 36 48 5 72 65 6 84 73 93 100 91 100 100 100 100 100 100
100 100 100 100 100 100 100 100 100 100 100 100 100 100 100 100 100 100 100 100 100 100 100 100 96 69 61 27 11 78 91 69 56 97 97 100 100 67 100 100 70 100 100 100
100 100 100 100 100 100 100 100 100 100 100 100 100 100 100 100 100 100 100 98 100 99 100 100 100 73 32 80 36 97 79 52 34 87 100 100 70 76 100 94 95 100 100 100
100 100 100 100 100 100 100 100 100 100 100 100 100 100 100 100 100 100 100 100 100 100 100 100 91 57 73 81 99 100 99 90 72 95 99 93 67 42 100 88 92 100 100 100
100 100 100 100 100 100 100 100 100 100 100 100 100 100 100 100 100 100 100 100 100 100 84 98 96 100 81 96 100 100 100 99 68 100 67 25 56 46 32 68 98 100 100 100
100 100 100 100 100 100 100 100 100 100 100 100 100 100 100 100 100 100 100 100 88 67 86 99 61 66 100 100 100 100 100 55 77 100 99 76 46 49 32 37 87 100 100 100
100 100 100 100 100 100 100 100 100 100 100 100 100 100 100 100 100 100 100 100 94 76 99 100 92 46 68 100 100 100 96 35 81 100 69 62 30 8 46 33 74 100 100 100
100 100 100 100 100 100 100 100 100 100 100 100 100 100 100 100 100 100 87 99 100 100 100 100 100 81 37 96 100 96 100 69 91 100 62 65 30 62 56 71 68 77 80 99

GFSNGP_prec_cloud_036.txt.gz
Cloud_Cover
0 78 2 0 8 5 5 5 16 7 7 5 76 72 99 100 53 3 0 0 0 0 0 0 4 7 16 11 5 1 4 5 12 5 93 84 80 91 80 100 58 98 100 100
1 4 4 0 0 5 56 57 71 6 83 8 5 10 5 4 5 4 0 0 0 0 0 0 2 5 5 3 5 38 100 91 94 100 100 96 100 87 99 31 39 100 100 100
4 5 5 0 0 0 0 4 5 1 0 0 4 4 3 0 3 5 5 0 4 5 5 5 5 5 5 10 67 86 68 86 83 97 99 100 100 100 96 98 100 100 100 100
41 97 15 0 0 0 0 0 0 0 0 0 0 0 3 0 1 5 3 4 5 5 5 5 5 5 5 14 58 98 88 56 18 62 98 100 100 100 100 100 100 100 100 100
84 5 2 0 0 0 0 1 0 0 0 0 0 0 0 0 0 0 0 1 5 2 1 5 5 31 59 66 75 31 5 5 56 72 88 100 100 100 100 100 100 100 100 100
13 3 0 1 0 0 0 7 0 0 0 0 0 0 0 0 2 0 0 4 0 5 5 7 13 5 18 14 5 6 11 17 55 91 100 100 99 100 100 100 100 100 100 100
15 5 5 0 0 0 4 3 0 0 0 0 0 0 0 0 1 0 2 4 5 5 5 5 5 5 18 27 70 38 49 68 92 95 100 100 100 97 83 85 92 100 100 100
52 2 5 2 0 0 0 0 0 3 0 0 0 2 4 5 5 5 5 5 9 5 5 5 16 32 34 81 62 54 99 100 92 79 64 72 74 58 65 66 100 93 70 100
26 5 4 98 5 0 0 4 5 5 5 5 5 5 5 5 5 9 26 7 5 28 47 55 25 55 78 100 100 100 100 95 99 80 74 95 80 11 5 8 26 33 76 92
16 41 5 64 2 0 4 5 5 5 5 5 5 5 5 5 5 5 5 5 5 13 21 89 58 100 99 100 100 100 92 86 74 82 73 29 5 5 5 8 23 85 73 8
80 99 22 5 9 49 90 92 45 5 5 5 5 5 5 5 11 8 7 19 32 39 98 99 100 100 100 100 96 100 85 73 72 26 5 5 5 6 5 26 72 14 8 70
100 87 14 99 100 100 100 100 100 61 23 9 5 5 10 38 62 84 93 90 94 100 100 100 100 100 99 67 88 77 70 46 25 28 29 25 23 35 55 72 25 6 6 41
100 100 100 100 100 100 100 100 100 100 100 100 99 89 98 100 100 100 100 100 100 100 100 100 100 96 76 86 67 46 19 37 30 6 9 30 43 49 71 70 64 5 5 43
100 100 100 100 100 100 100 100 100 100 100 100 100 100 100 100 100 91 100 100 100 100 100 99 84 98 89 56 5 6 5 5 5 26 57 83 85 95 92 94 98 91 40 5
100 100 100 100 100 100 100 100 100 94 83 81 94 100 100 90 94 100 100 100 99 93 83 98 100 100 99 65 73 73 65 79 68 81 74 29 66 94 96 94 100 98 36 38
100 100 100 100 100 100 100 100 100 74 76 98 90 66 42 68 95 100 100 96 92 100 100 100 100 100 99 100 100 97 87 95 77 98 71 99 66 97 100 100 100 100 100 100
100 100 100 100 100 100 100 80 100 95 86 99 100 100 100 100 100 100 100 100 100 100 100 100 100 100 100 100 99 100 100 100 100 88 72 63 98 100 100 100 100 100 100 100
100 100 100 100 100 100 100 100 100 100 98 100 100 100 100 100 100 100 100 100 100 100 100 100 100 100 100 100 100 100 100 100 100 100 96 70 96 94 80 100 100 100 100 94
100 98 84 100 100 100 100 100 100 100 100 100 100 98 100 100 100 100 100 100 100 100 100 100 100 100 100 100 100 100 100 100 100 100 99 36 93 19 56 100 100 32 83 100
93 100 100 100 100 100 100 100 100 100 100 100 100 100 100 100 100 100 100 100 100 100 100 100 100 100 100 100 100 100 100 100 100 100 58 57 85 42 39 84 91 56 89 100
100 100 100 100 100 100 100 100 100 100 100 100 100 100 100 100 100 100 100 100 100 100 100 100 100 100 100 100 100 100 100 100 98 91 100 100 91 28 5 80 58 22 96 100
100 100 100 100 100 100 100 100 100 100 100 100 100 100 100 100 100 100 100 100 100 100 100 100 100 100 100 100 100 100 100 81 9 85 98 94 33 46 8 77 64 54 81 91
100 100 100 100 100 100 100 100 100 100 100 100 100 100 100 100 100 100 100 100 100 100 100 100 100 100 100 100 100 100 99 86 66 100 100 100 74 56 37 58 62 45 71 86
100 100 100 100 100 100 100 100 100 100 100 100 100 100 100 100 100 100 100 100 100 100 100 100 100 100 100 100 100 100 100 93 69 100 100 27 64 26 5 20 52 5 55 82
100 100 100 100 100 100 100 100 100 100 100 100 100 100 100 100 100 100 100 100 100 100 100 100 100 92 100 100 100 100 100 76 77 100 100 81 46 12 5 19 18 60 66 68
100 100 100 100 100 100 100 100 100 100 100 100 100 100 100 100 100 100 100 100 100 100 100 100 98 96 77 100 100 100 100 94 84 100 99 62 7 6 15 6 26 31 54 63
100 100 100 100 100 100 100 100 100 100 100 100 100 100 100 100 100 100 100 100 100 100 100 100 100 100 76 100 100 100 100 100 100 100 100 60 24 46 37 44 35 56 56 56

GFSNGP_prec_cloud_039.txt.gz
Cloud_Cover
5 0 2 0 0 0 1 5 2 9 84 59 5 62 66 83 24 6 0 0 5 5 4 0 0 0 1 5 5 5 5 4 5 4 5 46 86 32 90 100 100 100 100 96
5 2 1 0 0 5 1 0 5 4 62 12 5 9 36 26 56 78 5 4 2 2 0 0 0 4 5 5 5 5 4 0 1 83 93 98 100 100 100 100 100 100 100 100
5 1 1 0 0 0 0 0 0 18 5 5 1 0 1 3 5 5 4 1 5 5 0 0 0 0 5 5 0 0 1 5 5 52 96 100 100 100 100 100 100 100 100 100
7 0 51 0 0 0 0 0 0 2 1 0 0 0 0 0 0 2 5 0 0 0 0 0 0 2 1 0 3 5 5 5 5 14 77 100 84 90 100 99 99 99 84 100
3 1 33 8 0 0 4 29 0 0 0 5 0 0 0 1 5 5 3 0 1 0 2 5 5 5 5 5 5 5 5 5 14 56 68 55 42 89 100 100 43 91 100 100
20 12 81 68 5 0 3 11 0 0 0 0 0 0 0 0 0 5 5 1 4 5 5 5 39 76 39 5 6 21 48 57 68 72 44 100 99 99 100 100 97 93 46 85
5 78 100 100 31 0 0 4 3 0 0 2 5 5 0 0 0 0 5 5 5 5 5 5 5 5 10 36 62 82 91 73 77 94 100 97 52 14 5 13 19 21 38 68
60 100 100 95 5 2 0 0 5 1 0 2 5 16 5 5 1 0 4 5 5 5 5 7 5 17 91 100 100 84 89 98 72 28 7 10 29 10 12 31 48 18 80 71
96 5 48 100 28 5 1 0 0 0 0 0 2 6 5 7 5 5 5 4 5 5 5 5 5 11 6 16 38 13 8 5 5 5 28 46 49 70 80 36 17 84 24 32
52 5 5 13 90 5 4 29 0 0 0 0 0 4 5 5 8 18 5 5 5 7 6 5 5 7 53 39 79 35 10 5 20 55 79 89 66 64 32 5 22 5 30 57
28 87 43 98 31 8 98 100 17 5 5 5 8 5 5 5 5 40 68 63 50 11 8 36 62 90 81 97 41 5 5 28 69 55 6 6 5 5 33 12 5 5 5 22
98 100 93 100 100 100 100 100 100 62 7 27 25 32 21 43 10 14 11 5 5 22 82 100 100 100 100 35 31 54 43 36 9 5 5 5 5 5 24 23 5 5 6 5
100 100 100 100 100 100 100 100 100 100 100 100 100 19 9 26 32 24 53 87 92 100 100 100 100 100 93 42 68 92 96 91 82 71 23 5 19 5 9 61 94 100 99 83
100 100 100 100 100 100 100 100 100 100 100 100 100 54 8 11 8 11 23 32 98 100 100 100 100 90 63 82 100 100 100 94 92 57 65 39 5 5 5 10 33 76 88 93
100 100 100 100 100 100 100 100 100 100 100 100 100 100 100 76 61 100 98 100 100 98 95 80 87 94 87 94 99 100 100 100 100 76 69 19 14 29 60 38 34 34 42 6
100 100 100 100 100 100 100 100 100 100 100 100 100 100 100 100 100 100 100 100 99 100 98 94 100 100 89 99 100 100 100 96 77 49 26 52 72 86 84 46 61 78 72 95
100 100 100 100 100 100 100 100 90 100 84 72 100 100 100 100 100 100 100 100 100 100 100 100 94 100 96 98 100 100 88 65 73 80 71 86 76 81 91 69 95 97 90 92
100 100 100 99 100 83 100 100 100 100 100 100 100 100 100 100 100 100 100 100 100 100 100 92 99 95 94 95 99 100 99 96 93 86 78 99 100 100 88 99 94 99 77 74
100 100 100 100 100 100 100 100 100 100 100 100 100 100 100 100 100 100 100 100 100 100 100 75 99 99 96 92 93 100 100 100 90 89 100 100 100 98 100 70 98 92 92 100
100 100 100 100 100 100 100 100 100 100 100 100 100 100 100 100 100 100 100 100 100 100 100 100 100 85 99 100 100 100 100 100 100 100 100 100 100 100 55 8 55 77 99 99
100 100 100 100 100 100 100 100 100 100 100 100 100 100 100 100 100 100 100 100 100 100 100 100 100 100 100 100 100 100 100 100 100 100 100 100 98 74 68 72 82 94 96 100
100 100 100 100 100 100 100 100 100 100 100 100 100 100 100 100 100 100 100 100 100 100 100 100 100 100 100 100 100 100 100 100 100 100 94 98 100 88 78 88 96 98 100 100
100 100 100 100 100 100 100 100 100 100 100 100 100 100 100 100 100 100 100 100 100 100 100 100 100 100 100 100 100 100 100 100 97 33 83 100 100 97 71 34 42 100 100 100
100 100 100 100 100 100 100 100 100 100 100 100 100 100 100 100 100 100 100 100 100 100 100 100 100 100 100 100 100 100 100 99 69 75 96 81 100 94 73 14 5 62 100 100
100 100 100 100 100 100 100 100 100 100 100 100 100 100 100 100 100 100 100 100 100 100 100 100 100 100 100 100 100 93 86 100 100 100 100 100 100 100 87 65 69 71 82 100
100 100 100 100 100 100 100 100 100 100 100 100 100 100 100 100 100 100 100 100 100 100 100 100 100 100 100 96 99 99 89 100 100 100 100 100 100 99 87 60 75 87 99 100
100 100 100 100 100 100 100 100 100 100 100 100 100 100 100 100 100 100 100 100 100 100 100 100 100 100 100 100 100 100 100 100 94 100 100 100 100 100 78 84 85 92 100 100

GFSNGP_prec_cloud_045.txt.gz
Cloud_Cover
82 85 100 100 86 94 100 96 93 29 100 100 84 58 65 32 15 5 5 5 11 6 5 2 7 33 95 55 35 24 46 88 100 100 100 100 100 100 100 91 93 98 100 100
19 86 62 79 99 83 100 96 100 100 37 97 5 5 5 0 0 0 0 4 0 0 34 5 1 4 32 34 93 98 43 47 40 17 7 12 9 6 16 38 46 77 100 100
100 100 100 92 100 5 53 20 43 32 5 84 5 5 5 1 0 0 0 0 0 0 0 23 28 23 45 33 34 3 2 2 1 1 1 2 2 3 5 14 45 100 97 91
100 88 100 100 94 51 97 5 5 5 5 3 4 4 0 0 0 0 0 0 0 0 2 5 5 5 5 5 5 3 5 5 5 5 5 5 8 6 50 81 99 100 90 98
100 67 100 100 100 100 84 75 63 5 5 4 5 0 0 0 0 0 0 0 0 2 5 5 5 30 13 5 4 5 5 15 48 79 94 98 100 91 72 98 96 100 100 100
100 48 86 100 100 91 5 99 3 23 78 5 5 0 3 0 0 0 0 0 0 0 1 4 5 5 5 5 5 5 5 5 5 15 44 72 88 99 100 100 94 56 64 88
100 68 98 100 100 100 16 100 5 43 13 38 31 10 2 0 0 0 0 0 0 0 2 0 5 59 29 36 48 15 36 63 74 87 98 100 100 78 46 49 87 90 54 10
100 78 67 100 100 100 100 37 27 100 6 5 84 74 5 1 0 0 0 0 0 5 4 5 5 63 100 100 98 97 100 99 88 82 84 82 83 87 100 89 33 52 32 5
100 100 100 100 100 100 100 100 5 80 34 30 76 28 97 83 5 5 5 5 5 5 5 5 5 5 82 100 100 100 100 100 100 100 84 99 100 89 68 31 7 5 5 5
100 100 100 100 100 100 100 98 98 100 100 45 5 5 88 100 98 87 71 6 25 9 7 33 5 5 34 54 60 55 38 24 7 86 96 44 16 5 5 5 5 5 5 5
100 100 100 100 100 100 100 100 100 100 93 78 5 15 86 100 100 78 46 12 29 98 100 96 35 46 22 76 89 98 46 38 97 87 6 5 62 75 5 26 73 50 5 27
100 100 100 100 100 100 100 100 100 100 100 26 98 36 45 69 100 100 24 5 5 91 76 56 81 87 100 94 16 52 98 77 9 5 6 10 14 46 56 52 22 11 36 51
100 100 100 100 100 100 100 100 100 100 74 93 22 15 81 68 100 100 72 5 5 19 95 100 100 99 51 55 55 75 69 76 74 84 97 79 13 16 10 64 66 99 97 80
100 100 100 100 100 100 100 84 100 100 75 67 44 55 44 23 97 86 100 74 100 100 70 25 5 58 100 100 100 100 97 99 75 91 100 100 100 84 78 98 100 100 98 12
100 100 100 100 100 100 100 100 100 100 100 93 81 87 56 50 99 100 85 100 91 39 20 9 90 99 100 100 100 100 100 100 100 81 99 100 100 100 100 100 100 100 96 71
100 100 100 100 100 100 100 100 100 100 100 100 100 96 61 100 100 100 100 100 93 85 89 93 100 100 100 100 100 100 100 100 100 100 100 100 100 100 100 100 100 100 99 100
100 100 100 100 100 100 100 100 100 100 100 100 100 100 100 100 100 100 100 100 100 100 100 100 100 100 100 100 100 100 100 100 100 100 100 100 100 100 100 100 100 100 100 100
100 100 100 100 79 100 100 100 100 100 100 100 100 100 100 100 100 100 100 100 100 100 100 100 100 100 100 100 100 100 100 100 100 100 100 100 100 100 100 100 100 100 100 100
100 100 100 100 100 100 100 100 100 100 100 100 100 100 100 100 100 100 100 100 100 100 100 100 100 100 100 100 100 100 100 100 100 100 100 100 100 100 100 100 100 100 100 100
100 100 100 100 100 100 100 100 100 100 100 100 100 100 100 100 100 100 100 100 100 100 100 100 100 100 100 100 100 100 100 100 100 100 100 100 100 100 100 100 100 100 100 100
100 100 100 100 100 100 100 100 100 100 100 100 100 100 100 100 100 100 100 100 100 100 100 100 100 100 100 100 100 100 100 100 100 100 100 100 100 100 100 100 100 100 100 100
100 100 100 100 100 100 100 100 100 100 100 100 100 100 100 100 100 100 100 100 100 100 100 100 100 100 100 100 100 100 100 100 100 100 100 100 100 100 100 100 100 100 100 100
100 100 100 100 100 100 100 100 100 100 100 100 100 100 100 100 100 100 100 100 100 100 100 100 100 100 100 100 100 100 100 100 100 100 100 100 100 100 100 100 100 100 100 100
100 100 100 100 100 100 100 100 100 100 100 100 100 100 100 100 100 100 100 100 100 100 100 100 100 100 100 100 100 100 100 100 100 100 100 100 100 100 100 100 100 100 100 100
100 100 100 100 100 100 100 100 100 100 100 100 100 100 100 100 100 100 100 100 100 100 100 100 100 100 100 100 100 100 100 100 100 100 100 100 100 100 100 100 100 100 100 100
100 100 100 100 100 100 100 100 100 100 100 100 100 100 100 100 100 100 100 100 100 100 100 100 100 100 100 100 100 100 100 100 100 100 100 100 100 100 100 100 100 100 100 100
100 100 100 100 100 100 100 100 100 100 100 100 100 100 100 100 100 100 100 100 100 100 100 100 100 100 100 100 100 100 100 100 100 100 100 100 100 100 100 100 100 100 100 100

GFSNGP_prec_cloud_048.txt.gz
Cloud_Cover
100 100 100 100 100 100 100 65 24 6 5 3 78 100 1 70 36 61 5 0 4 2 0 0 0 0 2 32 30 57 60 54 64 81 100 100 100 100 100 100 100 100 100 100
100 100 100 100 100 100 100 6 61 10 94 21 58 89 18 94 5 0 0 0 0 0 0 0 0 12 0 6 0 12 5 60 100 100 100 100 100 100 100 51 30 27 95 65
92 100 100 100 100 100 100 100 100 100 56 66 80 70 10 8 8 1 0 0 0 0 0 0 14 46 83 41 42 35 61 85 68 57 23 18 23 13 24 5 5 5 27 60
98 100 100 100 100 96 88 35 100 59 98 78 8 42 4 29 4 0 0 0 0 0 0 7 1 31 37 30 8 5 5 4 5 5 9 23 26 23 21 32 37 48 18 29
100 100 100 100 100 100 92 100 100 100 100 100 90 97 7 0 0 0 0 0 0 0 0 0 0 0 0 5 5 5 83 61 5 5 5 5 5 9 5 10 70 92 99 37
100 100 100 100 100 100 100 100 100 100 100 79 29 85 6 24 3 5 5 5 0 0 0 0 0 0 5 5 5 3 1 5 6 9 42 26 82 100 70 93 67 56 100 100
100 100 100 100 100 100 100 100 100 92 68 15 39 7 98 72 86 100 38 5 5 5 1 0 0 0 0 4 3 4 0 5 11 100 96 84 61 46 57 87 99 100 96 57
99 100 98 100 100 100 100 100 97 5 94 17 63 82 100 100 84 10 24 83 100 100 77 5 5 5 5 5 5 5 5 6 22 12 13 20 60 65 56 100 99 71 22 84
100 25 70 100 100 100 100 100 86 72 96 100 73 63 99 100 99 56 68 45 70 99 100 42 5 5 5 5 5 5 38 10 21 80 100 100 75 96 100 84 56 67 66 40
97 59 88 100 100 100 100 97 100 91 90 100 88 100 100 74 41 80 73 79 62 79 100 100 98 18 5 99 32 19 60 100 100 100 89 44 95 79 44 5 7 7 7 71
32 100 100 100 100 100 100 100 100 100 100 100 100 100 100 97 78 15 62 97 38 54 92 100 100 100 79 99 88 100 100 100 100 85 68 67 84 57 6 5 26 100 92 65
97 100 100 100 100 100 100 100 100 100 100 100 100 100 100 100 100 100 100 100 26 73 78 62 92 92 93 100 62 48 84 100 100 33 57 62 55 50 95 100 100 100 98 80
100 100 100 100 100 100 100 100 100 100 100 100 100 100 100 100 100 100 98 64 51 90 99 20 51 32 78 42 91 100 98 99 94 100 100 100 98 100 100 100 100 100 100 95
100 100 84 91 92 100 100 100 100 100 100 100 90 52 98 89 100 100 8 45 94 96 71 71 85 99 96 99 100 92 98 99 96 100 100 100 100 100 100 100 100 100 100 100
89 100 100 100 100 100 100 100 100 100 100 100 99 82 100 100 100 97 90 100 100 98 100 100 100 100 100 100 100 100 100 100 100 100 100 100 100 100 100 100 100 100 100 100
100 100 97 100 100 100 100 100 100 100 100 100 100 99 74 82 100 91 100 100 100 100 100 100 100 100 100 100 100 100 100 100 100 100 100 100 100 100 100 100 100 100 100 100
100 100 100 100 100 100 100 100 100 100 100 100 100 100 100 100 99 100 100 100 100 100 100 100 100 100 100 100 100 100 100 100 100 100 100 100 100 100 100 100 100 100 100 100
100 100 100 100 100 100 100 100 100 100 100 100 100 100 100 100 100 100 100 100 100 100 100 100 100 100 100 100 100 100 100 100 100 100 100 100 100 100 100 100 100 100 100 100
100 100 100 100 100 100 100 100 100 100 100 100 100 100 100 100 100 100 100 100 100 100 100 100 100 100 100 100 100 100 100 100 100 100 100 100 100 100 100 100 100 100 100 100
100 100 100 100 100 100 100 100 100 100 100 100 100 100 100 100 100 100 100 100 100 100 100 100 100 100 100 100 100 100 100 100 100 100 100 100 100 100 100 100 100 100 100 100
100 100 100 100 100 100 100 100 100 100 100 100 100 100 100 100 100 100 100 100 100 100 100 100 100 100 100 100 100 100 100 100 100 100 100 100 100 100 100 100 100 100 100 100
100 100 100 100 100 100 100 100 100 100 100 100 100 100 100 100 100 100 100 100 100 100 100 100 100 100 100 100 100 100 100 100 100 100 100 100 100 100 100 100 100 100 100 100
100 100 100 100 100 100 100 100 100 100 100 100 100 100 100 100 100 100 100 100 100 100 100 100 100 100 100 100 100 100 100 100 100 100 100 100 100 100 100 100 100 100 100 100
100 100 100 100 100 100 100 100 100 100 100 100 100 100 100 100 100 100 100 100 100 100 100 100 100 100 100 100 100 100 100 100 100 100 100 100 100 100 100 100 100 100 100 100
100 100 100 100 100 100 100 100 100 100 100 100 100 100 100 100 100 100 100 100 100 100 100 100 100 100 100 100 100 100 100 100 100 100 95 100 100 100 100 100 100 100 100 95
100 100 100 100 100 100 100 100 100 100 100 100 100 100 100 100 100 100 100 100 100 100 100 100 100 100 100 100 100 100 100 100 100 100 100 100 100 100 100 100 100 100 100 100
100 100 100 100 100 100 100 100 100 100 100 100 100 100 100 100 100 100 100 100 100 100 100 100 100 100 100 100 99 100 100 100 100 100 100 99 100 100 100 100 100 100 86 100

GFSNGP_prec_cloud_051.txt.gz
Cloud_Cover
100 100 100 100 100 100 100 76 100 100 100 100 44 45 30 55 4 3 5 3 5 1 0 0 0 0 0 0 3 80 7 26 67 69 67 70 100 100 100 100 100 100 100 100
100 100 100 100 100 99 100 100 100 100 100 100 35 6 4 3 60 34 42 1 0 0 0 0 0 0 0 0 0 0 36 64 48 44 100 89 100 100 100 100 100 100 100 100
100 100 100 62 87 100 100 100 100 100 100 100 56 36 100 39 11 23 5 3 0 0 0 0 0 0 0 0 0 0 5 48 68 73 100 100 100 100 100 100 100 94 79 53
100 100 84 27 97 100 100 100 100 100 100 100 78 100 100 100 100 16 75 4 0 0 0 0 0 4 0 0 0 0 14 58 55 60 57 100 100 100 64 5 5 5 5 6
93 100 93 43 99 100 100 100 100 100 100 100 24 13 100 100 6 10 6 12 3 0 0 0 0 0 5 4 0 0 21 85 62 9 7 35 36 8 3 5 5 6 40 43
77 71 20 100 100 100 100 100 100 100 100 100 88 67 100 100 88 5 45 100 98 5 5 5 4 9 53 18 3 3 0 4 9 90 2 2 4 5 5 8 19 8 48 30
92 31 44 55 100 100 100 99 100 100 100 100 100 100 100 100 33 39 98 100 86 45 25 5 6 5 5 8 5 5 5 5 1 5 5 5 7 13 5 37 5 6 5 24
100 79 39 5 96 98 92 100 100 100 100 100 90 64 71 84 100 100 100 29 57 73 60 53 70 40 5 13 5 5 5 5 4 5 5 6 8 21 44 57 51 5 40 39
66 6 11 98 95 100 100 100 100 93 91 100 54 100 100 100 96 100 86 57 5 35 56 39 33 98 99 10 6 5 5 47 69 5 9 14 6 83 98 50 54 39 68 64
55 51 100 100 100 100 100 100 100 100 100 100 100 100 100 96 100 100 100 47 87 32 5 5 59 100 100 51 34 57 48 14 24 5 5 32 63 97 100 90 99 100 100 100
94 100 100 100 100 100 100 100 100 100 100 100 100 100 100 90 100 100 100 96 100 100 100 100 100 100 100 98 17 6 78 65 73 27 35 97 100 100 98 100 86 96 100 100
100 100 100 100 89 100 100 100 100 99 93 90 100 100 100 100 100 100 80 100 100 100 100 100 100 100 100 100 85 94 100 100 92 99 98 100 100 100 100 100 100 100 100 100
100 100 100 99 100 100 100 100 100 100 100 100 100 27 36 66 100 100 100 100 100 100 100 100 100 100 100 100 100 100 100 100 100 100 100 100 100 100 100 100 100 100 100 100
64 100 89 45 52 59 100 100 100 100 100 100 100 100 91 99 100 100 100 100 100 100 100 100 100 100 100 100 100 100 100 100 100 100 100 100 100 100 100 100 100 100 100 100
100 100 100 100 100 100 100 98 100 100 100 99 100 100 96 86 100 100 100 100 100 100 100 100 100 100 100 100 100 100 100 100 100 100 100 100 100 100 100 100 100 100 100 100
100 100 100 100 100 100 100 100 100 100 100 100 100 100 100 100 100 100 100 100 98 100 100 100 100 100 100 100 100 100 100 100 100 100 100 100 100 100 100 100 100 100 100 100
100 100 100 100 100 100 100 100 100 100 100 100 100 100 100 100 100 100 100 100 100 100 100 100 100 100 100 100 100 100 100 100 100 100 100 100 100 100 100 100 100 100 100 100
100 100 100 100 100 100 100 100 100 100 100 100 100 100 100 100 100 100 100 100 100 100 100 100 100 100 100 100 100 100 100 100 100 100 100 100 100 100 100 100 100 100 100 100
100 100 100 100 100 100 100 100 100 100 100 100 100 100 100 100 100 100 100 100 100 100 100 100 100 100 100 100 100 100 100 100 100 100 100 100 100 100 100 100 100 100 100 100
100 100 100 100 100 100 100 100 100 100 100 100 100 100 100 100 100 100 100 100 100 100 100 100 100 100 100 100 100 100 100 100 100 100 100 100 100 100 100 100 100 100 100 100
100 100 100 100 100 100 100 100 100 100 100 100 100 100 100 100 100 100 100 100 100 100 100 100 100 100 100 100 100 100 100 100 100 100 100 100 100 100 100 100 100 100 100 100
100 100 100 100 100 100 100 100 100 100 100 100 100 100 100 100 100 100 100 100 100 100 100 100 100 100 100 100 100 100 100 100 100 100 100 100 100 100 100 100 100 100 100 100
100 100 100 100 100 100 100 100 100 100 100 100 100 100 100 100 100 100 100 100 100 100 100 100 100 100 100 100 100 100 100 100 100 97 99 100 100 100 100 100 100 100 100 100
100 100 100 100 100 100 100 100 100 100 100 100 100 100 100 100 100 100 100 100 100 100 100 100 100 100 100 100 100 100 100 100 100 100 100 100 100 100 100 100 100 90 100 91
100 100 100 100 100 100 100 100 100 100 100 100 100 100 100 100 100 100 100 100 100 100 100 100 100 100 100 100 100 100 100 100 100 100 100 100 99 92 69 83 100 100 100 100
100 100 100 100 100 100 100 100 100 100 100 100 100 100 100 100 100 100 100 100 100 100 100 100 100 100 100 100 100 100 84 76 78 81 78 80 67 62 65 93 91 81 82 82
100 100 100 100 100 100 100 100 100 100 100 100 100 100 100 100 100 100 100 100 100 100 100 100 100 100 100 95 48 72 54 53 76 99 95 32 57 99 95 77 54 57 57 56

GFSNGP_prec_cloud_054.txt.gz
Cloud_Cover
100 100 100 100 100 100 99 65 45 90 100 98 49 100 95 96 43 43 14 24 1 0 0 0 0 1 3 0 1 5 5 20 97 100 100 100 100 100 100 100 100 100 100 100
100 100 100 100 100 100 100 100 100 81 75 100 88 5 74 100 100 18 0 13 5 5 0 0 0 0 0 0 0 0 91 100 100 100 100 100 100 100 100 100 100 100 100 100
100 100 100 100 100 100 100 100 100 100 100 100 100 100 100 94 68 100 41 18 34 5 5 1 0 0 0 4 8 20 100 100 100 100 100 100 100 100 100 100 100 100 100 100
100 100 100 96 100 100 100 100 100 99 96 100 100 99 95 100 96 86 5 46 6 6 39 4 0 0 4 18 45 91 97 100 100 100 100 100 100 81 98 100 100 100 100 100
99 96 100 100 100 100 100 100 100 100 100 100 100 100 97 100 100 92 100 100 74 68 3 1 14 5 5 17 63 91 100 100 100 100 100 100 100 100 100 99 100 100 80 29
100 100 42 100 100 100 100 100 100 100 100 100 100 79 65 100 100 100 98 100 100 8 3 5 84 30 5 65 40 25 50 83 98 99 99 45 73 64 21 5 4 5 5 53
100 100 66 31 100 100 100 98 100 100 92 98 100 71 93 100 100 100 100 100 96 78 36 32 13 1 13 4 43 48 40 100 100 100 34 24 26 5 5 5 5 5 5 74
100 100 100 89 99 100 92 97 100 100 92 41 83 100 78 65 100 100 98 93 100 100 32 5 4 5 5 5 5 13 82 100 100 72 100 39 7 5 5 5 5 52 94 48
100 100 100 100 100 100 85 60 100 100 88 8 51 99 100 100 100 100 100 100 100 100 90 95 5 5 5 11 63 100 100 100 94 24 62 85 60 5 47 69 53 35 6 19
100 100 100 100 100 100 76 40 100 100 100 100 82 87 95 100 100 100 100 100 100 100 81 90 100 100 100 100 100 100 100 100 100 84 68 73 97 100 100 67 10 9 5 46
100 100 100 100 92 82 93 100 100 100 100 75 23 97 100 100 100 100 100 100 100 100 100 100 100 100 100 100 100 100 100 100 100 100 100 96 91 42 78 100 100 74 100 100
100 100 72 100 4 26 89 88 100 100 100 97 96 100 100 100 100 100 100 100 100 100 100 100 100 100 100 100 100 100 100 100 100 100 100 100 100 100 100 100 100 100 100 100
100 100 87 3 5 20 100 100 100 100 100 100 100 100 100 100 100 100 100 100 100 100 100 100 100 100 100 100 100 100 100 100 100 100 100 100 100 100 100 100 100 100 100 100
100 100 100 58 55 38 100 100 100 100 100 100 100 100 100 100 97 100 96 95 100 100 100 100 100 100 100 100 100 100 100 100 100 100 100 100 100 100 100 100 100 100 100 100
100 48 98 100 100 100 100 100 100 100 100 100 100 100 100 100 100 100 95 100 100 100 100 100 100 100 100 100 100 100 100 100 100 100 100 100 100 100 100 100 100 100 100 100
100 60 84 100 100 100 100 100 100 100 100 100 100 100 100 100 100 100 100 100 100 100 100 100 100 100 100 100 100 100 100 100 100 100 100 100 100 100 100 100 100 100 100 100
100 100 97 100 100 100 100 100 100 100 100 100 100 100 100 100 100 100 100 100 100 100 100 100 100 100 100 100 100 100 100 100 100 100 100 100 100 100 100 100 100 100 100 100
100 100 100 100 100 100 100 100 100 100 100 100 100 100 100 100 100 100 100 100 100 100 100 100 100 100 100 100 100 100 100 100 100 100 100 100 100 100 100 100 100 100 100 100
100 100 100 100 100 100 100 100 100 100 100 100 100 100 100 100 100 100 100 100 100 100 100 100 100 100 100 100 100 100 100 100 100 100 100 100 100 100 100 100 100 100 100 100
100 100 100 100 100 100 100 100 100 100 100 100 100 100 100 100 100 100 100 100 100 100 100 100 100 100 100 100 100 100 100 100 100 100 100 100 100 100 100 100 100 100 100 100
100 100 100 100 100 100 100 100 100 100 100 100 100 100 100 100 100 100 100 100 100 100 100 100 100 100 100 100 100 100 100 100 100 100 100 100 100 100 100 100 100 100 100 100
100 100 100 100 100 100 100 100 100 100 100 100 100 100 100 100 100 100 100 100 100 100 100 100 100 100 100 100 100 100 100 100 100 100 100 100 100 100 100 100 100 100 100 99
100 100 100 100 100 100 100 100 100 100 100 100 100 100 100 100 100 100 100 100 100 100 100 100 100 100 100 99 100 100 100 100 100 100 100 100 100 100 100 100 96 100 100 100
100 100 100 100 100 100 100 100 100 100 100 100 100 100 100 100 100 100 100 100 100 100 100 100 100 100 100 99 100 100 100 100 100 100 100 100 100 98 100 100 100 99 93 100
100 100 100 100 100 100 100 100 100 100 100 100 100 100 100 100 100 100 100 100 100 100 99 100 100 100 100 94 100 100 100 100 100 100 100 100 100 100 100 100 96 84 90 94
100 100 100 100 100 100 100 100 100 100 100 100 100 100 100 100 100 100 96 99 99 100 100 100 100 100 100 100 100 100 100 100 99 100 96 100 100 100 100 99 93 88 99 100
100 100 100 100 100 100 100 100 100 100 100 99 98 100 100 100 100 100 100 100 100 100 100 100 100 100 100 90 66 93 89 75 18 5 50 95 100 100 98 71 83 91 98 100

GFSNGP_prec_cloud_057.txt.gz
Cloud_Cover
100 100 100 100 100 100 15 67 49 100 100 100 4 9 43 95 100 100 100 5 5 5 5 5 8 1 0 0 0 0 0 0 8 33 73 100 100 100 100 100 100 100 100 100
100 100 100 100 53 100 100 100 100 100 100 100 92 5 5 31 64 100 100 100 12 80 10 5 5 6 9 1 0 0 0 20 54 78 100 100 100 100 100 100 100 100 100 100
69 100 100 100 54 91 100 100 100 100 100 100 100 52 31 8 73 94 100 100 92 82 45 3 5 5 5 27 64 35 11 5 6 83 99 100 100 100 100 100 100 100 100 100
100 100 92 100 100 87 16 100 100 100 100 100 100 100 100 88 30 52 100 100 100 100 5 7 10 36 12 5 0 5 20 59 80 94 79 100 100 100 100 100 100 100 100 100
100 100 45 73 100 100 100 100 100 100 100 100 100 100 100 76 54 30 78 100 100 38 51 100 99 82 20 49 41 51 94 95 99 100 100 100 100 100 100 100 100 100 100 100
100 100 100 100 74 100 100 98 100 100 100 94 100 100 100 99 17 71 27 92 100 100 100 99 36 81 75 79 96 100 100 100 100 100 100 100 100 100 100 100 100 100 100 100
100 100 76 100 100 100 100 100 100 100 92 14 50 100 100 100 100 94 100 82 100 100 100 100 100 100 100 82 84 95 100 100 100 100 100 100 100 100 100 100 100 100 100 100
64 88 58 96 100 100 100 100 100 100 100 97 96 100 100 100 100 100 100 100 100 100 100 100 100 100 100 100 55 36 75 100 100 100 100 100 100 100 100 100 100 100 85 100
2 2 1 11 78 99 100 100 100 100 100 100 100 100 100 20 37 100 100 100 100 100 100 100 100 100 100 100 92 65 85 100 100 100 100 100 100 100 100 100 100 100 87 100
0 0 0 93 100 50 100 100 100 100 100 100 60 97 100 99 37 85 100 100 100 100 100 100 100 100 100 100 100 72 74 78 99 100 100 100 100 100 100 100 100 100 100 100
1 0 0 98 100 100 100 100 100 100 100 100 73 99 85 100 97 100 100 100 100 100 100 100 100 100 100 100 100 79 97 100 100 100 100 100 100 100 100 100 100 100 100 100
57 13 78 96 100 100 100 100 100 100 100 100 100 100 100 100 100 100 100 97 99 100 100 100 100 100 100 100 100 100 100 100 100 100 100 100 100 100 100 100 100 100 100 100
62 89 70 99 100 100 100 100 100 100 100 100 73 100 100 100 100 100 100 100 100 100 100 100 100 100 100 100 100 100 100 100 100 100 100 100 100 100 100 100 100 100 100 100
84 100 100 100 100 100 100 100 100 100 100 100 92 100 100 100 100 100 100 100 100 100 100 96 97 100 100 100 99 100 100 100 100 100 100 100 100 100 100 100 100 100 100 100
100 100 100 100 100 100 100 100 100 100 100 96 74 80 100 100 100 100 100 100 100 100 100 100 100 98 100 100 100 100 100 100 100 100 100 100 100 100 100 100 100 100 100 100
100 99 100 87 100 100 100 100 100 100 100 98 65 69 94 100 100 100 100 100 100 100 100 100 100 100 100 100 100 100 100 100 100 100 100 100 100 100 100 100 100 100 100 100
100 100 100 100 100 100 100 100 100 100 100 100 92 100 100 95 100 100 100 100 100 100 100 100 100 100 100 100 100 100 100 100 100 100 100 100 100 100 100 100 100 100 100 100
100 100 100 100 100 100 100 100 100 100 100 100 100 100 100 100 100 100 100 100 100 100 100 100 100 100 100 100 100 100 100 100 100 100 100 100 100 100 100 100 100 100 100 95
100 100 100 100 100 100 100 100 100 100 100 100 100 100 100 100 100 100 100 100 100 100 100 100 100 100 100 100 100 100 100 100 100 100 100 100 100 100 100 100 100 100 100 100
100 100 100 100 100 100 100 100 100 100 100 100 100 100 100 100 100 100 100 100 100 100 100 100 100 100 100 100 100 100 100 100 100 100 100 100 91 94 100 98 98 87 100 100
100 100 100 100 100 100 100 100 100 100 100 100 100 100 100 100 100 100 100 100 100 100 100 100 100 100 100 100 100 100 100 100 100 100 100 100 100 100 98 89 100 100 100 100
100 100 100 100 100 100 100 100 100 100 100 100 100 100 100 100 100 100 100 100 100 100 100 100 100 100 100 100 100 100 100 100 100 100 100 100 99 100 100 100 100 100 100 100
100 100 100 100 100 100 100 100 100 100 100 100 100 100 100 100 100 100 100 100 100 100 100 100 100 100 100 100 100 100 100 100 100 99 99 100 100 100 100 100 100 100 83 87
100 100 100 100 100 100 100 100 100 100 100 100 100 100 100 100 100 100 100 100 100 100 100 100 100 100 100 100 100 100 100 100 100 100 100 100 100 100 100 100 100 100 100 100
100 100 100 100 100 100 100 100 100 100 100 100 100 100 100 100 100 100 100 100 100 98 100 98 95 96 90 80 98 100 100 100 100 78 89 100 100 100 100 100 100 99 100 100
100 100 100 100 100 100 100 100 100 100 100 100 100 100 100 100 100 100 98 85 80 97 82 76 73 18 18 42 91 100 100 100 100 100 100 100 100 100 100 70 83 86 99 100
100 100 100 100 100 98 99 100 100 100 100 100 100 100 100 97 86 76 76 86 90 94 95 93 100 100 100 100 100 95 75 64 73 75 100 100 100 100 100 100 100 100 100 100

GFSNGP_prec_cloud_060.txt.gz
Cloud_Cover
100 100 39 5 100 64 5 33 5 100 100 100 99 76 100 100 96 96 100 100 100 100 53 23 6 6 0 0 0 0 0 0 0 0 2 18 70 50 100 100 100 100 100 100
100 100 100 100 100 100 100 57 49 100 100 100 100 100 100 100 100 85 100 100 100 100 100 85 9 32 38 1 0 0 0 0 0 0 0 0 0 14 100 100 100 100 100 100
100 100 100 100 100 100 84 98 100 45 88 100 100 100 100 100 100 92 95 100 100 100 100 84 100 100 100 100 44 21 1 0 0 0 3 2 12 52 99 98 100 100 100 100
100 100 95 100 100 100 99 100 55 100 100 100 100 100 100 100 100 100 100 98 96 36 100 100 100 100 100 44 58 100 96 9 5 5 5 33 91 96 100 100 100 100 100 100
100 100 48 99 100 100 100 100 55 10 28 7 90 100 100 100 100 100 100 100 87 99 98 100 100 100 100 100 97 100 30 85 61 26 77 100 100 100 100 100 100 100 100 100
100 83 20 99 100 100 100 52 100 100 100 42 88 45 100 100 100 100 100 100 100 100 100 97 100 100 100 100 100 9 17 76 97 100 100 100 100 100 100 100 100 100 100 100
100 100 100 100 100 100 100 100 100 79 46 94 100 100 86 100 100 100 100 100 100 100 100 100 97 100 93 100 90 88 100 100 100 100 100 100 100 100 100 100 100 100 100 100
100 97 89 100 100 100 100 100 100 100 87 46 100 100 100 100 100 99 100 100 100 100 100 100 100 100 100 96 100 100 100 100 100 100 100 100 100 100 100 100 100 100 100 100
2 6 0 4 70 100 100 100 98 100 100 100 100 100 100 100 100 100 100 100 96 99 100 100 100 100 100 100 100 100 100 100 100 100 100 100 100 100 100 100 100 100 100 100
0 0 0 0 0 0 7 98 100 25 75 96 100 100 81 94 100 100 100 100 100 100 100 100 100 100 100 100 100 100 100 100 100 100 100 100 100 100 100 100 100 100 100 100
1 0 0 0 0 0 3 100 100 100 100 100 88 80 100 88 66 94 100 100 100 100 100 100 100 98 100 100 100 100 100 100 100 100 100 100 100 100 100 100 100 100 100 100
0 8 82 14 1 0 0 0 100 100 100 100 100 99 100 83 91 82 92 100 100 100 80 100 100 100 100 100 100 100 100 100 100 100 100 100 100 100 100 100 100 100 100 100
100 58 10 5 83 5 5 5 9 100 98 99 100 100 90 6 82 100 100 100 100 100 100 99 100 100 100 100 100 100 100 100 100 88 82 100 100 100 100 100 100 100 100 100
100 97 23 62 94 78 19 100 98 100 100 100 100 100 100 100 35 100 99 100 100 100 100 100 100 100 100 100 100 100 100 100 100 100 100 100 100 100 100 100 100 100 100 100
99 99 100 100 85 69 100 100 100 100 100 100 100 100 100 100 100 100 100 100 100 100 100 100 100 100 100 100 100 100 100 100 100 100 100 100 100 100 100 100 100 100 100 100
94 95 100 100 100 99 100 100 100 100 100 100 100 100 100 100 100 100 100 100 100 100 100 100 100 100 100 100 100 100 100 100 100 100 100 100 100 100 100 100 100 100 100 100
100 100 100 100 100 100 100 100 100 100 100 100 100 100 100 100 100 100 100 100 100 100 100 100 100 100 100 100 100 100 100 100 100 100 100 100 100 100 100 100 100 100 100 100
100 100 100 100 100 100 100 100 100 100 100 100 100 94 100 100 100 100 100 100 100 100 100 100 100 100 100 100 100 100 100 100 100 100 100 100 100 100 100 100 100 100 100 100
100 100 100 100 100 100 100 100 100 100 100 100 100 100 100 100 100 100 100 100 100 100 100 100 100 100 100 100 100 100 100 100 100 100 100 100 100 100 100 100 100 100 100 100
100 100 100 100 100 100 100 100 100 100 100 100 100 100 100 100 100 100 100 100 100 100 100 100 100 100 100 100 100 100 100 100 100 100 100 100 100 100 100 100 100 99 92 100
100 100 100 100 100 100 100 100 100 100 100 100 100 100 100 100 100 100 100 100 100 100 100 100 100 100 100 100 100 100 100 100 100 100 100 100 100 100 99 98 100 100 99 100
100 100 100 100 100 100 100 100 100 100 100 100 100 100 100 100 100 100 100 100 100 100 100 100 100 100 100 100 100 100 100 100 100 100 100 100 99 100 93 90 100 100 100 100
100 100 100 100 100 100 100 100 100 100 100 100 100 100 100 100 100 100 100 100 100 84 100 100 100 100 100 100 100 100 100 100 99 98 90 98 100 100 100 100 100 100 100 88
100 100 100 100 100 100 100 100 100 100 100 100 100 100 100 100 100 100 100 100 100 100 100 97 95 100 100 91 67 67 88 100 98 97 81 100 100 100 100 100 100 100 100 100
100 100 100 100 100 100 100 100 100 100 100 100 100 100 100 100 99 100 99 99 100 99 90 100 100 100 100 100 100 100 100 100 96 98 100 100 100 100 100 100 100 96 100 100
100 100 100 100 100 100 100 100 100 100 100 100 100 100 100 100 100 100 100 100 100 100 100 99 90 88 94 100 100 96 68 48 62 66 100 100 100 100 100 100 100 100 100 100
99 87 74 68 80 67 49 34 69 100 90 79 98 100 93 76 92 100 100 96 95 84 86 83 81 84 100 100 99 99 100 100 100 100 100 100 100 100 100 100 100 100 100 100

GFSNGP_prec_cloud_063.txt.gz
Cloud_Cover
100 100 100 47 100 100 86 46 5 70 5 100 100 100 100 61 100 100 100 100 100 88 5 62 96 5 5 5 4 1 0 0 0 0 0 4 28 68 24 58 28 88 98 100
100 100 100 100 100 100 100 83 70 99 78 100 100 100 100 94 99 100 100 100 100 100 100 11 5 100 10 42 5 15 5 2 0 0 0 0 0 0 0 0 4 2 37 100
100 100 100 100 100 100 100 100 100 100 100 96 94 84 100 100 99 93 97 100 100 100 100 42 65 6 91 78 61 94 11 5 0 5 1 0 0 0 0 1 12 19 90 100
100 100 100 100 100 100 100 100 86 100 100 100 98 85 100 95 95 100 100 100 100 100 100 100 100 29 44 5 37 100 100 82 7 5 5 2 6 5 28 73 82 98 100 100
100 100 96 100 100 100 100 100 100 100 100 100 100 100 100 100 100 100 100 100 52 100 80 100 100 100 100 46 6 38 100 100 94 62 97 2 46 90 97 99 100 100 100 100
100 98 92 100 100 100 100 100 100 100 100 100 76 82 99 100 100 100 100 100 100 100 100 100 100 100 100 100 100 66 10 99 100 45 100 100 100 100 100 100 100 100 100 100
100 90 60 99 100 100 100 65 37 32 4 5 5 6 96 100 100 100 100 100 100 100 100 100 100 100 100 100 100 100 99 100 100 100 82 100 100 100 100 100 100 100 100 100
100 100 96 100 100 88 91 48 5 14 100 70 5 100 100 100 100 100 100 100 100 100 100 100 100 99 100 100 100 100 100 100 100 100 100 100 100 100 100 100 100 100 100 100
100 96 88 100 100 100 100 100 89 29 94 100 98 89 54 98 100 100 100 100 100 100 100 100 100 100 100 100 100 100 100 100 100 100 100 100 100 100 100 100 100 100 100 100
75 99 100 100 100 100 100 100 100 100 100 94 100 100 100 61 56 100 100 100 100 100 100 100 100 100 100 100 100 100 100 100 100 100 100 100 100 100 100 100 100 100 100 100
5 5 5 5 35 3 63 87 88 99 97 10 36 99 100 100 100 100 97 71 95 100 100 100 100 100 100 100 100 100 100 100 100 100 100 100 100 100 100 100 100 100 100 100
3 98 98 60 10 87 13 1 4 2 4 3 5 72 100 44 45 59 69 89 100 97 93 96 100 100 100 100 100 100 100 100 100 100 100 100 100 100 100 100 100 100 100 100
96 92 100 66 100 100 85 51 23 5 5 5 8 52 100 100 100 99 82 98 99 100 100 100 100 100 100 100 100 100 100 100 100 100 100 100 100 100 100 100 100 100 100 100
100 100 78 100 100 100 99 82 62 52 15 33 60 76 100 100 100 100 100 100 100 100 100 100 100 100 100 100 100 100 100 100 100 100 100 100 100 100 100 100 100 100 100 100
100 100 100 100 100 100 100 100 100 98 87 97 100 100 100 100 100 100 100 100 100 100 100 100 95 100 100 100 100 100 100 100 100 100 100 100 100 100 100 100 100 100 100 100
99 100 100 100 100 100 100 100 100 100 100 100 100 100 100 100 100 100 100 100 100 100 100 100 100 100 100 100 100 100 100 100 100 100 100 100 100 100 100 100 100 100 100 100
99 92 100 100 100 100 100 100 100 100 100 100 100 100 100 100 100 100 100 100 100 100 100 100 100 100 100 100 100 100 100 100 100 100 100 100 100 100 100 100 100 100 100 100
99 95 100 100 100 100 100 100 100 100 100 100 100 100 100 100 100 100 100 100 100 100 100 100 100 100 100 100 100 100 100 100 100 100 100 100 100 100 100 100 100 100 100 100
100 100 100 100 100 100 100 100 100 100 100 100 100 100 100 100 100 100 100 100 100 100 100 100 100 100 100 100 100 100 100 100 100 100 100 100 100 100 100 100 100 100 100 100
100 100 100 100 100 100 100 100 100 100 100 100 100 100 100 100 100 100 100 100 100 100 100 100 100 100 100 100 100 100 100 100 100 100 100 100 100 100 100 100 100 100 100 100
100 100 100 100 100 100 100 100 100 100 100 100 100 100 100 100 100 100 100 100 100 100 100 100 100 100 100 100 100 100 100 100 100 100 100 100 100 100 100 100 98 100 100 100
100 100 100 100 100 100 100 100 100 100 100 100 100 100 100 100 100 100 100 100 100 100 100 100 100 100 100 100 100 100 100 100 100 100 100 100 100 94 87 100 100 100 100 100
100 100 100 100 100 100 100 100 100 100 100 100 100 100 100 100 100 100 100 100 99 100 100 100 100 100 100 100 100 100 100 100 100 99 100 100 100 100 98 100 100 92 79 70
100 100 100 100 100 100 100 100 100 100 100 100 100 100 100 100 100 100 100 100 100 100 100 100 100 98 100 100 99 100 100 100 100 96 67 78 100 100 99 82 68 70 50 50
100 100 100 100 100 100 100 100 100 100 100 100 100 100 100 100 100 100 100 100 100 100 100 100 100 100 100 100 100 100 100 100 96 96 96 95 99 99 100 92 72 68 73 88
100 100 100 100 100 100 100 100 100 100 100 100 100 100 100 100 100 100 100 100 100 100 99 98 96 96 89 85 76 56 55 44 40 69 79 98 99 96 80 70 64 69 87 95
100 100 100 100 99 58 39 57 64 99 79 99 100 100 52 6 8 15 36 23 18 6 69 98 100 91 97 92 87 93 98 99 88 100 100 100 88 80 71 73 88 90 94 94

GFSNGP_prec_cloud_069.txt.gz
Cloud_Cover
100 100 100 100 100 100 100 100 100 100 100 100 100 100 100 100 93 30 99 92 100 100 40 5 6 30 40 100 92 15 0 0 2 0 0 0 0 0 0 0 0 0 1 0
100 100 100 100 100 100 100 100 100 100 100 100 100 100 100 100 100 100 92 100 45 44 88 100 93 5 5 5 10 92 100 86 0 0 0 4 6 98 7 0 0 0 0 0
100 100 100 100 100 100 100 100 100 100 100 100 100 100 100 100 100 100 100 22 17 98 98 100 100 30 11 21 98 8 100 100 100 9 0 1 2 6 94 100 86 4 19 3
100 100 100 100 100 100 100 100 100 100 100 100 100 100 100 100 100 100 100 100 78 43 40 100 98 100 92 86 30 48 65 69 100 100 100 55 45 100 80 14 65 100 100 100
100 100 100 100 100 100 100 100 100 100 100 100 100 100 100 100 95 100 100 100 100 56 60 14 5 84 42 19 5 5 40 100 100 98 86 100 100 100 100 100 99 97 99 100
100 100 100 100 100 100 100 100 100 100 100 100 99 100 96 100 100 100 100 100 100 100 100 100 100 100 92 33 55 56 100 100 100 100 94 100 90 84 99 100 100 100 100 100
100 100 100 100 100 100 100 100 100 100 100 100 74 78 61 45 100 100 100 100 100 100 100 100 100 100 100 100 100 100 100 100 100 100 100 88 89 100 100 69 76 100 100 100
100 100 100 100 100 100 100 100 55 82 96 71 56 11 89 62 28 32 85 100 100 100 100 100 100 100 100 100 100 100 100 100 100 70 100 100 100 100 100 100 100 100 100 100
100 100 100 100 100 100 100 100 100 100 100 90 37 19 42 91 91 76 68 100 100 100 100 100 100 100 100 100 100 100 100 100 100 100 100 100 100 100 100 100 100 100 100 100
100 100 100 100 100 100 100 100 100 100 100 100 91 54 5 5 5 23 99 100 100 100 100 100 100 100 100 100 100 100 100 100 100 100 100 100 100 100 100 100 100 100 100 100
100 100 100 100 100 100 100 100 100 100 94 90 100 61 6 6 16 36 39 37 68 86 90 100 100 100 100 100 100 100 100 100 100 100 100 100 100 100 100 100 100 100 100 100
100 100 100 100 100 100 100 100 100 100 95 55 24 58 86 81 90 93 100 100 100 98 100 100 100 100 98 100 100 100 100 100 100 100 100 100 100 100 100 100 100 100 100 100
100 100 100 100 100 100 100 92 90 74 86 71 99 100 100 100 100 100 100 100 100 100 100 100 100 100 100 100 93 100 100 100 100 100 100 100 100 100 100 100 100 100 100 100
100 100 100 100 100 90 88 100 100 96 65 59 54 93 83 75 100 100 100 100 100 100 100 100 100 98 97 100 100 100 100 100 100 100 100 100 100 100 100 100 100 100 100 100
74 60 99 100 100 100 99 88 96 100 82 85 90 92 93 99 99 100 100 100 100 100 100 100 100 99 98 99 100 100 100 100 100 100 100 100 100 100 100 100 100 100 100 100
68 82 100 94 86 90 68 52 98 78 86 100 96 98 100 100 100 100 100 100 100 100 100 100 100 100 100 100 100 100 100 100 100 100 100 100 100 100 100 100 100 100 100 100
73 75 82 92 100 100 90 89 96 99 97 100 100 100 100 100 100 100 100 100 100 100 100 100 100 100 100 100 100 100 100 100 100 100 100 100 100 100 100 100 100 100 100 100
100 100 100 100 100 100 100 100 100 100 100 100 100 100 100 100 100 100 100 100 100 100 100 100 100 100 100 100 100 100 100 100 100 100 100 100 100 100 100 100 100 100 100 100
100 100 100 100 100 100 100 100 100 100 100 100 100 100 100 100 100 100 100 100 100 100 100 100 100 100 100 100 100 100 100 100 100 100 100 100 100 100 100 100 100 100 100 100
100 100 100 100 100 100 100 100 100 100 100 100 100 100 100 100 100 100 100 100 100 100 100 100 100 100 100 100 100 100 100 100 98 99 100 100 100 100 100 100 100 100 100 100
100 100 100 100 100 100 100 100 100 100 100 100 100 100 100 100 100 100 100 100 100 100 100 100 100 100 100 100 100 100 100 100 100 100 100 100 100 100 100 100 100 100 100 100
100 100 100 100 100 100 100 100 100 100 100 100 100 100 100 100 100 100 100 100 100 100 100 100 100 100 100 100 100 100 100 100 100 100 100 100 100 100 100 100 100 100 100 100
100 100 100 100 100 100 100 100 100 100 100 100 100 100 100 100 100 100 100 100 100 100 96 100 100 100 98 100 100 100 100 100 100 100 100 100 100 100 100 100 100 100 100 100
100 100 100 100 100 100 100 100 100 100 100 100 100 100 100 100 100 100 100 100 100 99 100 100 100 100 100 100 100 100 100 100 100 100 100 100 100 100 100 100 100 100 100 100
100 100 100 100 100 100 100 96 99 100 100 100 100 100 100 100 100 100 100 100 100 100 100 100 100 100 100 100 100 100 100 100 100 100 100 100 100 100 100 100 100 100 100 100
100 100 100 100 100 100 100 100 100 100 100 100 100 100 100 100 100 100 100 97 100 100 100 100 100 100 100 100 100 100 100 100 100 100 100 100 100 100 100 100 100 100 100 100
100 92 100 100 99 100 99 96 100 100 100 100 100 100 100 100 96 100 85 100 100 100 100 100 100 100 100 100 100 100 100 100 97 93 100 100 100 100 100 100 100 100 100 100

GFSNGP_prec_cloud_072.txt.gz
Cloud_Cover
100 100 100 100 100 100 100 100 100 100 100 100 100 100 100 100 76 70 98 100 100 98 83 75 36 5 3 0 1 63 100 100 88 21 7 1 0 0 0 0 9 76 4 1
100 100 100 100 100 100 100 100 100 100 100 100 100 100 100 100 100 88 44 5 5 56 100 59 98 37 31 20 5 0 0 4 5 22 100 54 12 3 0 0 26 100 100 96
100 100 100 100 100 100 100 100 100 100 100 100 100 100 100 100 100 100 100 100 82 74 12 7 13 14 15 5 5 5 5 5 3 4 4 55 93 63 13 21 6 19 21 5
100 100 99 100 100 100 100 100 100 100 100 100 100 100 100 100 100 100 100 100 100 100 100 45 84 96 93 27 69 94 94 69 39 46 58 59 6 49 100 100 88 100 99 79
100 100 100 100 100 100 100 100 100 100 100 100 100 100 89 100 100 100 100 100 100 100 100 100 100 100 98 100 79 74 52 60 89 89 63 56 78 100 100 66 81 45 67 92
100 100 100 100 100 100 100 100 100 100 100 100 100 100 100 100 100 100 100 100 100 100 100 100 100 88 98 100 100 100 90 56 9 5 5 22 11 79 76 100 100 84 100 100
100 100 100 100 100 100 100 100 100 100 100 100 100 99 100 100 100 96 100 100 100 100 100 100 100 100 100 100 100 100 100 100 89 50 45 91 40 42 87 29 58 99 100 100
100 100 100 100 100 100 100 100 100 100 100 100 100 100 100 100 100 100 100 99 95 51 99 100 100 100 100 100 100 100 100 100 100 100 98 100 100 100 99 100 100 100 100 100
100 100 100 100 100 100 100 100 100 85 100 100 100 100 100 100 100 96 100 100 100 100 90 88 100 100 100 100 100 100 100 100 100 100 100 100 100 100 100 100 100 100 100 100
100 100 100 100 100 100 100 100 100 100 100 100 100 100 100 99 100 48 21 44 46 76 88 100 100 100 100 100 100 100 100 100 100 100 100 100 100 100 100 100 100 100 100 100
100 100 100 100 100 98 100 100 100 100 100 100 100 100 100 100 71 73 80 100 100 100 100 100 100 100 100 100 100 100 100 100 100 100 100 100 100 100 100 100 100 100 100 100
100 100 100 100 100 99 100 100 100 100 100 100 92 82 81 100 99 100 100 100 100 100 100 100 100 100 100 100 100 100 100 100 98 100 100 100 100 100 100 100 100 100 100 100
100 100 100 100 100 100 100 100 100 100 100 100 100 100 100 100 100 87 100 100 100 100 100 100 100 100 100 100 100 100 100 100 100 100 100 100 100 100 100 100 100 100 100 100
100 100 100 100 100 100 100 100 100 100 100 87 95 100 100 100 88 96 96 100 100 100 92 84 94 100 100 100 100 100 100 100 96 96 100 100 100 100 100 100 100 100 100 100
100 100 100 100 100 100 100 100 100 100 100 100 100 100 100 100 100 100 98 100 100 100 100 96 100 100 100 100 100 100 100 95 91 92 100 100 100 100 100 100 100 100 100 100
100 100 100 100 100 100 100 100 100 100 100 100 100 100 100 100 100 100 100 98 96 100 100 100 90 100 100 100 100 100 99 96 87 92 99 100 100 100 100 100 100 100 100 100
100 100 100 100 100 100 100 100 100 100 100 100 100 100 100 100 100 100 99 100 100 100 100 100 100 100 100 100 100 100 100 93 97 100 96 100 100 98 100 100 100 100 100 100
99 100 100 94 100 99 95 99 100 100 100 99 96 96 87 95 100 100 100 100 99 100 100 100 100 100 98 100 100 100 100 100 99 98 100 100 100 99 96 92 96 91 100 100
100 100 100 100 100 100 100 100 100 94 95 88 92 100 100 100 94 100 100 100 99 99 100 100 100 100 100 100 100 100 100 100 100 100 100 100 100 100 100 100 100 97 98 91
100 100 100 100 99 95 97 95 88 90 90 85 90 99 100 99 99 90 95 100 100 100 100 100 100 97 100 100 100 100 100 100 100 100 100 100 100 100 98 82 82 100 100 100
100 100 100 100 100 100 100 88 83 89 97 85 77 82 90 75 72 88 91 100 100 100 98 100 100 100 100 100 100 100 100 100 100 100 100 100 100 100 100 100 87 82 94 100
97 93 98 98 98 100 98 94 87 80 80 77 87 99 97 100 99 100 97 96 100 100 99 99 80 79 91 98 100 100 100 100 100 100 100 100 100 100 100 100 100 100 98 100
100 94 97 100 100 99 100 95 97 90 94 97 95 86 95 100 100 100 100 100 100 100 100 100 99 96 99 100 100 100 100 100 100 100 100 100 99 100 94 29 100 96 93 55
100 100 100 98 99 99 100 100 98 76 90 99 100 100 100 100 100 100 100 99 100 100 100 100 100 100 100 96 100 94 100 100 100 100 100 100 100 100 100 94 100 100 92 100
99 88 85 79 85 100 79 56 87 100 100 100 100 100 100 100 100 100 100 100 98 99 83 40 80 100 98 100 94 80 100 57 63 60 100 100 100 100 100 100 100 99 100 100
100 100 70 67 80 98 96 92 100 96 99 100 95 100 100 100 100 100 96 71 67 99 100 97 37 37 94 95 100 100 100 100 17 63 95 100 100 100 100 97 100 100 100 100
97 96 91 86 89 46 57 67 100 100 83 90 98 100 100 100 55 100 86 100 100 100 100 100 100 55 40 50 100 100 100 100 100 85 97 100 100 100 100 100 100 100 100 100

GFSNGP_prec_cloud_075.txt.gz
Cloud_Cover
100 100 100 100 100 100 100 100 100 100 100 100 100 100 98 96 100 100 100 100 100 28 22 24 17 5 5 4 2 1 1 1 1 68 60 75 5 48 81 74 40 0 0 2
100 100 100 100 100 100 100 100 100 100 100 100 100 100 100 100 100 100 89 100 92 99 30 57 5 42 100 44 2 4 5 0 0 0 0 0 2 0 0 1 18 47 21 6
100 100 100 100 100 100 100 100 100 100 100 100 100 100 100 100 100 100 100 99 100 100 93 100 80 10 5 5 49 91 71 6 5 11 5 3 4 5 3 0 1 4 23 39
100 100 100 100 100 100 100 100 100 100 100 100 100 100 100 100 100 100 100 15 33 98 78 94 98 90 75 80 67 41 90 89 66 51 45 60 11 5 5 5 5 28 14 96
100 100 100 100 100 100 100 100 100 100 100 100 100 100 100 100 100 100 100 96 95 98 100 100 100 99 99 24 29 95 73 53 41 100 97 50 91 98 5 5 5 14 100 96
100 100 100 100 100 100 100 100 100 100 100 100 100 100 100 100 22 69 100 100 100 100 100 100 100 100 100 100 100 100 100 100 100 100 96 59 96 67 98 100 100 94 92 62
100 100 100 100 100 100 100 100 100 100 100 100 100 100 100 100 100 78 98 100 100 100 100 100 100 100 100 100 100 100 100 100 90 95 90 100 100 100 100 100 100 100 100 100
100 97 100 100 100 100 100 100 100 100 100 100 100 87 100 100 100 100 100 100 100 100 100 100 100 100 100 100 100 100 100 70 99 96 98 100 100 100 100 100 100 100 100 100
100 100 100 100 100 100 100 100 100 100 100 100 100 96 100 100 100 100 100 100 100 100 100 100 100 100 100 100 100 100 100 100 100 100 94 96 73 100 100 100 100 100 100 100
100 100 100 100 100 100 100 100 100 100 100 100 100 100 100 100 100 100 85 100 100 100 100 100 100 100 100 100 100 100 86 71 56 99 98 85 100 100 100 100 100 100 100 100
100 100 100 100 100 100 100 100 100 100 100 100 100 100 100 100 100 100 100 100 100 100 100 100 100 100 100 100 100 100 100 100 100 94 100 100 100 100 100 100 100 100 100 100
100 100 100 100 100 100 100 100 100 100 100 100 100 100 100 100 100 100 100 100 100 100 100 100 100 100 100 100 100 100 100 100 100 100 100 100 100 100 100 100 100 100 99 100
100 100 100 100 100 92 100 100 100 100 100 100 100 100 100 100 100 100 100 100 100 100 100 100 100 100 100 100 100 100 100 100 100 100 100 100 100 100 100 100 100 100 100 100
100 100 100 100 100 100 100 100 100 100 100 100 100 100 100 100 100 100 100 100 100 100 100 100 100 100 100 81 73 87 90 90 98 100 100 100 100 100 100 100 100 98 100 100
100 100 100 100 100 94 100 100 100 100 100 100 100 100 100 100 100 100 100 98 94 100 99 100 100 100 95 92 84 79 93 89 89 100 100 99 99 100 100 100 99 98 100 100
100 100 100 100 100 100 99 99 100 100 100 100 100 100 100 100 100 100 100 100 98 98 100 100 97 100 99 93 86 91 96 97 98 100 100 100 100 100 100 100 100 100 100 100
100 100 100 100 100 100 100 100 100 100 100 100 100 100 100 100 100 100 100 99 96 100 100 100 100 94 85 75 86 100 95 80 72 85 84 98 100 100 100 100 100 100 100 100
100 100 100 100 100 100 100 100 100 100 100 100 100 100 100 100 100 100 100 99 96 92 91 71 63 72 83 84 81 83 90 99 100 97 98 99 100 100 100 100 100 100 100 100
59 81 96 100 100 100 100 100 100 94 90 86 91 94 88 90 92 92 89 86 81 83 87 92 75 75 68 80 98 98 100 92 98 100 94 93 100 100 100 100 100 100 100 100
88 81 98 100 80 100 100 100 98 98 90 99 95 93 92 100 88 89 81 79 77 79 85 84 89 94 84 85 74 94 99 92 89 89 76 74 100 100 100 100 100 100 100 100
42 40 70 91 99 96 88 56 20 87 86 70 68 74 78 75 82 82 90 98 97 98 100 100 100 97 71 82 100 88 83 99 100 98 100 100 100 100 100 100 100 99 100 100
42 69 63 21 84 100 60 5 7 5 24 60 96 92 67 87 77 84 99 99 100 100 100 100 100 100 100 99 99 100 100 100 100 98 84 98 74 72 79 95 82 64 86 91
75 63 59 14 33 73 20 12 5 5 6 14 46 27 17 47 81 88 92 82 93 99 98 100 100 100 100 100 100 100 100 100 100 100 100 100 100 100 100 100 100 100 100 94
75 18 6 24 64 48 68 49 5 7 24 37 64 98 100 100 93 96 100 100 100 100 100 100 100 100 100 100 100 100 100 79 78 92 100 97 100 100 100 98 100 100 98 91
28 99 100 98 88 22 13 30 48 83 80 97 95 82 83 76 78 92 93 88 88 96 12 12 29 61 39 81 5 90 100 78 70 5 100 99 60 100 89 35 70 94 100 75
93 81 93 96 70 54 68 99 100 100 100 89 73 25 7 30 55 88 99 100 87 91 97 31 5 5 5 53 8 5 99 79 30 5 54 86 71 84 80 58 63 56 69 88
56 86 95 76 11 5 35 95 100 92 99 99 99 99 84 72 76 96 91 69 80 73 79 99 100 65 72 43 71 6 5 42 5 5 23 88 83 70 63 68 8 5 59 80

GFSNGP_prec_cloud_078.txt.gz
Cloud_Cover
5 86 100 100 100 100 100 100 100 100 100 100 100 100 100 100 100 100 100 100 100 100 100 100 80 61 17 5 41 88 15 19 0 0 1 0 3 6 89 98 100 100 100 89
5 100 100 100 100 100 100 98 100 86 100 100 100 100 100 100 100 100 100 100 100 100 100 94 100 100 100 100 57 62 96 26 37 27 93 26 0 0 0 0 19 99 100 100
72 100 100 100 100 100 100 82 100 100 100 100 100 100 100 100 72 80 100 100 100 100 100 100 100 100 67 58 96 100 100 100 91 79 49 54 70 72 37 29 20 15 8 7
100 100 100 100 100 100 100 100 100 100 100 100 100 100 100 100 100 100 100 100 99 100 100 100 100 100 100 74 50 28 18 42 81 99 100 100 99 76 98 94 92 98 97 42
100 100 100 100 100 100 100 100 100 100 100 100 100 100 100 100 100 100 100 100 100 94 100 100 100 100 100 100 100 100 100 100 96 100 100 100 100 100 100 98 98 100 100 100
100 100 100 100 100 100 100 100 100 100 100 100 100 100 100 100 100 100 100 100 100 38 63 84 100 99 100 100 100 100 100 100 100 100 100 100 100 100 100 100 100 100 100 100
100 100 100 100 100 100 100 100 100 100 100 100 100 100 100 100 100 100 100 100 100 99 75 100 100 100 100 100 100 83 64 78 92 100 100 100 100 100 100 100 100 100 100 100
100 100 100 100 100 100 100 100 100 100 100 100 100 100 100 100 100 100 100 100 100 86 100 100 100 100 100 100 100 100 94 82 67 85 88 100 100 100 100 100 100 100 100 100
100 100 100 100 100 100 100 100 100 100 100 100 100 100 100 100 100 100 100 100 100 100 100 100 100 100 100 100 100 100 100 100 100 100 100 100 100 100 100 100 100 100 100 100
100 100 100 100 100 100 100 100 100 100 100 100 100 100 100 100 100 100 100 99 100 100 100 100 100 100 100 100 100 100 100 99 100 100 100 100 100 100 100 99 96 100 100 100
100 100 100 100 100 100 100 100 100 100 100 100 100 100 100 100 100 100 91 100 100 100 100 100 100 100 100 96 83 92 97 82 87 100 100 100 100 100 100 100 100 100 100 100
100 100 100 100 100 100 100 100 100 100 100 100 100 100 100 100 100 100 100 100 99 100 100 100 100 100 100 98 96 100 100 100 100 100 100 100 100 100 100 100 100 100 100 100
100 100 100 100 100 100 100 100 100 100 100 100 100 100 100 100 100 100 100 100 100 100 100 100 100 100 100 100 76 90 100 100 100 100 100 100 100 100 100 99 100 100 100 100
100 100 100 100 100 100 100 100 100 100 100 100 100 100 100 100 100 100 100 100 100 100 100 100 100 100 100 91 89 81 89 88 98 96 100 99 100 100 93 97 100 96 100 100
100 100 100 100 100 100 100 100 100 100 100 100 100 100 100 100 100 100 100 100 100 98 100 100 95 100 100 91 94 100 100 92 98 100 95 79 63 72 70 79 95 100 100 100
100 100 100 100 100 100 100 98 91 100 100 100 100 100 100 100 100 100 100 100 100 100 100 100 100 100 100 80 75 88 98 79 58 56 58 69 69 79 88 91 96 100 100 100
100 100 100 100 100 100 100 100 100 100 100 100 100 100 100 100 100 100 100 100 100 100 100 100 100 100 99 100 100 100 99 70 66 96 100 96 97 96 93 89 96 100 100 100
97 99 100 100 100 100 100 100 100 100 100 98 84 63 56 96 100 100 94 84 79 86 98 88 64 36 27 46 43 60 90 91 68 82 92 100 100 99 98 95 88 100 100 95
87 100 99 100 100 99 100 100 100 94 92 46 32 88 73 76 81 80 20 20 16 66 86 37 20 25 58 65 65 74 70 77 94 97 92 84 100 99 92 85 97 97 93 100
100 100 99 100 79 73 100 100 100 100 100 100 100 100 93 84 33 5 5 94 84 93 67 68 60 63 66 81 86 87 88 98 100 98 87 98 100 100 100 88 99 100 100 100
85 80 93 89 100 88 84 69 44 86 94 88 80 65 61 95 47 5 7 93 41 32 23 11 50 63 80 74 81 87 92 96 100 92 88 94 100 91 81 68 76 100 100 100
70 70 86 75 84 100 82 68 63 58 70 84 67 47 22 26 45 24 46 65 28 55 47 71 70 31 57 72 90 99 100 100 100 93 89 92 100 100 100 100 100 100 100 97
72 64 39 54 68 95 43 47 48 59 62 63 68 12 9 23 66 90 95 92 90 93 95 91 91 99 100 100 100 100 100 100 100 100 100 100 100 100 100 100 78 100 100 95
77 66 71 49 53 32 22 10 7 5 14 5 38 91 63 68 65 50 50 10 11 61 83 91 90 84 84 47 46 44 49 13 67 98 56 99 100 66 75 71 87 100 98 82
70 91 85 78 93 100 90 85 51 17 71 49 9 5 5 5 10 17 7 37 28 5 5 5 14 21 51 63 86 62 55 47 16 92 91 100 100 74 90 100 100 100 100 100
77 82 95 99 97 100 100 97 100 100 100 100 88 48 57 40 11 30 31 33 77 69 7 6 37 17 5 12 49 94 23 5 5 23 99 94 100 100 81 95 79 58 96 100
56 90 60 22 15 15 56 74 100 100 100 100 100 96 43 26 26 34 58 86 38 72 75 78 95 100 94 74 89 78 77 94 88 60 90 95 100 100 99 65 58 61 89 100

GFSNGP_prec_cloud_081.txt.gz
Cloud_Cover
5 4 4 5 59 100 58 65 97 100 100 100 100 100 100 100 100 100 100 100 99 100 100 100 100 100 100 100 100 100 17 58 53 7 5 2 5 10 30 68 93 100 100 98
5 3 4 2 3 100 99 46 100 100 100 100 100 100 100 100 100 100 100 100 100 100 100 100 100 100 100 100 86 76 69 50 29 72 67 58 5 44 21 1 1 5 68 99
6 3 2 5 22 60 100 100 100 100 100 100 100 100 100 100 100 100 100 100 100 100 100 100 100 100 100 100 100 100 100 100 100 100 91 98 38 37 89 72 59 72 42 20
83 4 17 1 95 86 100 100 100 100 100 100 100 100 100 100 100 100 100 100 100 100 100 100 100 100 100 100 100 100 100 100 100 100 100 100 100 100 100 100 100 100 100 100
50 40 4 90 100 100 100 100 100 100 100 100 100 100 100 100 100 100 100 100 100 100 100 100 100 100 100 100 100 100 100 100 100 100 100 100 100 100 100 100 100 100 100 100
73 31 28 100 100 100 100 100 100 100 100 100 100 100 100 100 100 100 100 100 100 100 100 100 100 100 100 100 100 100 100 100 100 100 100 100 100 100 100 100 100 100 100 100
98 95 100 100 100 100 100 100 100 100 100 100 100 100 100 100 100 100 100 100 100 100 100 100 100 100 100 100 100 100 100 100 100 100 100 100 100 100 100 100 100 100 100 100
84 96 100 100 100 100 100 100 100 100 100 100 100 100 100 100 100 100 100 100 100 100 100 100 100 100 100 100 100 100 100 99 100 100 100 100 100 100 100 100 100 100 100 100
82 59 100 100 100 100 100 100 100 100 100 100 100 100 100 100 100 100 100 100 100 100 100 100 100 100 100 100 100 100 100 100 100 100 100 100 100 100 100 100 100 100 100 100
57 100 100 100 100 100 100 100 100 100 100 100 100 100 100 100 100 100 100 100 100 100 100 100 100 100 100 100 100 100 100 99 91 98 100 100 100 100 100 100 100 100 100 100
100 100 100 100 100 100 100 100 100 100 100 100 100 100 100 100 100 100 100 100 100 100 100 100 100 100 100 100 100 100 100 92 90 97 100 100 100 100 100 100 100 100 100 100
100 100 100 100 100 100 100 100 100 100 100 100 100 100 100 100 100 100 100 100 100 100 100 100 100 100 100 100 100 100 100 100 98 93 99 100 99 100 100 100 100 98 88 79
100 100 100 100 100 100 100 100 100 100 100 100 100 100 100 100 100 100 100 100 100 100 100 100 100 100 100 100 94 100 100 99 91 93 96 97 100 98 100 100 99 100 100 100
100 100 100 100 100 100 100 100 100 100 100 100 100 100 100 100 100 100 100 100 100 100 100 100 100 100 100 100 99 96 98 93 98 100 93 91 98 91 85 97 100 100 100 100
100 100 100 100 100 100 100 100 100 100 100 100 100 100 100 100 100 100 100 100 100 100 100 100 100 100 100 100 100 100 100 96 89 72 84 80 62 62 70 88 100 99 80 62
100 100 100 100 100 100 100 100 100 100 100 100 100 100 100 100 100 100 100 100 100 100 100 100 93 100 97 68 63 80 88 85 86 70 56 59 67 78 75 89 100 100 100 100
100 100 100 100 100 100 100 100 100 100 100 99 100 99 99 100 100 100 100 100 100 100 100 100 100 85 64 46 77 84 74 58 76 86 100 100 100 99 87 95 100 100 100 89
84 100 100 100 100 100 100 100 100 100 100 99 38 5 14 39 92 84 66 79 76 99 100 100 93 100 100 86 55 65 90 100 87 100 98 92 93 68 74 80 78 82 81 41
61 90 99 100 95 98 100 98 100 90 90 83 87 93 87 92 91 81 85 98 100 100 100 100 100 100 100 95 70 88 54 50 82 100 96 73 97 98 94 88 95 95 82 85
97 89 98 90 99 81 98 92 16 62 66 85 74 62 79 92 47 25 11 93 100 100 74 21 8 28 5 5 40 10 13 51 71 66 63 74 81 88 88 86 97 98 99 99
85 55 70 84 100 96 87 56 64 62 68 17 5 89 95 71 43 36 5 65 85 58 11 5 5 9 5 26 5 30 9 31 48 45 30 57 8 14 57 72 90 92 84 94
88 90 100 65 84 100 84 55 20 23 9 5 38 8 5 33 38 24 71 68 74 19 19 5 16 34 21 26 5 20 21 10 30 10 16 21 52 92 99 83 100 100 98 100
61 41 66 74 64 100 52 33 38 32 61 82 79 50 19 59 51 40 34 5 8 26 10 39 49 49 33 5 5 8 21 55 95 100 89 67 68 75 43 76 100 100 100 99
75 52 63 75 54 6 14 39 5 5 42 30 5 5 5 33 40 45 27 5 27 49 85 76 93 96 50 67 73 72 73 100 100 100 100 100 100 100 100 100 100 100 100 100
20 59 63 64 66 81 49 46 13 5 5 10 8 7 5 5 5 16 9 44 52 14 5 35 62 82 82 99 100 71 71 10 85 100 100 100 100 99 100 100 100 100 100 100
80 73 78 58 40 75 89 98 96 98 97 99 100 99 44 32 10 16 22 35 44 74 29 9 8 32 40 58 84 100 54 7 14 85 100 100 100 100 100 99 95 67 99 100
31 5 5 30 54 63 74 65 90 100 100 100 96 86 55 32 60 57 81 92 91 88 98 100 99 85 63 95 82 56 92 98 93 68 99 100 100 100 100 100 90 77 88 100

GFSNGP_prec_cloud_084.txt.gz
Cloud_Cover
100 100 100 100 100 51 5 49 86 3 97 100 100 100 99 100 100 100 100 100 100 100 100 100 100 100 100 99 100 96 100 68 60 23 22 5 5 5 6 17 53 62 30 40
70 82 5 60 15 5 0 64 5 5 100 100 100 100 100 100 100 100 100 100 100 100 100 100 100 100 100 100 100 100 100 100 98 77 40 21 9 0 0 4 5 13 1 44
40 4 5 5 3 5 32 5 100 92 100 100 100 100 100 100 100 100 100 100 100 100 100 100 100 100 100 100 100 100 100 100 100 100 100 100 100 100 100 100 100 82 95 98
100 5 7 1 3 2 41 3 83 100 100 100 100 100 100 100 100 100 100 100 100 100 100 100 100 100 100 100 100 100 100 100 100 100 100 100 100 100 100 100 100 100 100 100
39 34 0 5 4 12 41 53 70 100 100 100 100 100 100 100 100 100 100 100 100 100 100 100 100 100 100 100 100 100 100 100 100 100 100 100 100 100 100 100 100 100 100 100
69 41 23 100 5 4 14 90 100 100 100 100 100 100 100 100 100 100 100 100 100 100 100 100 100 100 100 100 100 100 100 100 100 100 100 100 100 100 100 100 100 100 100 100
100 96 100 100 6 16 100 100 100 100 100 100 100 100 100 100 100 100 100 100 100 100 100 100 100 100 100 100 100 100 100 100 100 100 100 100 100 100 100 100 100 100 100 100
100 100 100 100 85 87 100 100 100 100 100 100 100 100 100 100 100 100 100 100 100 100 100 100 100 100 100 100 100 100 100 100 100 100 100 100 100 100 100 100 100 100 100 100
92 87 100 100 100 100 100 100 100 100 100 100 100 100 100 100 100 100 100 100 100 100 100 100 100 100 100 100 100 100 100 100 100 100 100 100 100 100 100 100 100 100 100 100
100 100 100 100 100 100 100 100 100 100 100 100 100 100 100 100 100 100 100 100 100 100 100 100 100 100 100 100 100 100 100 100 100 100 100 100 99 100 100 100 100 100 100 100
100 100 100 100 100 100 100 100 100 100 100 100 100 100 100 100 100 100 100 100 100 100 100 100 100 100 100 100 100 100 100 99 100 99 100 100 98 100 98 100 99 99 100 100
100 100 100 100 100 100 100 100 100 100 100 100 100 100 100 100 100 100 100 100 100 100 100 100 100 100 100 100 100 88 100 100 100 96 100 100 100 100 100 100 100 100 100 100
100 100 100 100 100 100 100 100 100 100 100 100 100 100 100 100 100 100 100 100 100 100 100 100 100 100 100 100 100 100 100 100 96 98 100 96 100 100 100 100 100 100 100 100
100 100 100 100 100 100 100 100 100 100 100 100 100 100 100 100 100 100 100 100 100 100 100 100 100 100 100 98 97 86 93 100 99 99 90 83 92 96 97 100 100 100 100 100
100 100 100 100 100 100 100 100 100 100 100 100 100 100 100 100 100 100 100 100 100 100 100 100 92 100 100 97 93 96 100 94 73 80 61 50 53 57 59 68 93 98 51 32
100 100 100 100 100 100 100 100 100 100 100 100 100 100 100 100 100 100 100 100 100 100 100 100 98 100 95 88 86 100 100 100 82 66 53 54 67 72 65 68 81 98 99 100
100 100 100 100 100 100 100 100 100 100 100 100 100 100 100 100 87 90 100 100 100 100 100 100 100 100 100 93 97 100 84 100 100 100 100 93 79 79 71 80 98 100 100 86
100 100 100 100 100 100 100 100 100 100 100 94 90 85 80 71 78 67 52 70 82 98 100 100 100 100 86 74 70 47 73 90 86 91 60 58 64 20 56 60 61 70 83 40
88 100 100 100 97 100 100 100 99 76 36 54 60 96 65 63 61 70 5 5 26 66 100 76 87 52 52 88 65 55 17 44 58 71 53 61 85 87 82 57 61 76 51 21
90 73 63 72 44 22 99 86 61 82 84 64 51 81 64 94 63 15 15 100 100 100 64 7 5 37 5 5 41 5 5 28 14 54 14 42 46 98 91 77 67 81 62 26
84 49 65 79 100 94 83 22 11 48 50 29 93 100 95 84 96 83 59 80 98 11 5 5 5 5 5 26 5 48 5 5 5 20 46 62 57 59 100 99 68 100 100 78
63 87 98 61 79 99 90 40 5 10 5 8 60 44 5 45 42 41 91 82 94 21 15 5 5 34 24 26 5 5 24 5 14 5 52 32 55 96 100 100 100 100 100 100
67 43 76 50 36 96 55 50 57 5 8 37 42 56 19 65 60 6 5 6 30 52 9 24 67 79 30 5 21 54 60 91 99 84 92 92 92 84 67 100 100 100 100 99
99 100 100 95 92 46 31 9 5 20 52 22 5 5 5 5 38 54 25 34 32 75 83 94 100 100 54 68 68 74 100 100 100 100 100 100 100 100 100 100 100 100 100 100
42 50 62 74 96 100 96 90 79 89 75 68 32 32 6 10 5 7 7 44 68 15 5 30 73 90 98 100 95 76 9 38 96 100 100 100 99 100 100 100 100 100 100 100
69 86 92 96 62 86 90 99 100 100 100 100 100 99 65 33 26 20 26 42 38 78 76 83 67 53 60 63 85 99 94 59 52 87 100 100 100 100 100 100 100 86 86 100
50 10 51 62 59 68 70 68 64 77 86 100 100 100 47 60 79 64 89 97 88 85 97 100 100 99 99 100 100 97 92 94 99 99 94 100 100 100 100 100 100 100 90 100